FW0860 Weather Reports


Display with metric or nautical units.
time (UTC)temp
F
wind
direction
speed
MPH
gust
MPH
rain 1hr
in
rain 24hr
in
rain mn
in
humidity
%
barometer
mb
20260831220533 89 91 5.0 13.0 0.00 0.25 0.01 50 1013.5
20260831220440 89 82 5.0 13.0 0.00 0.25 0.01 49 1013.6
20260831220322 89 89 6.0 13.0 0.00 0.25 0.01 50 1013.6
20260831220227 89 360 5.0 13.0 0.00 0.25 0.01 50 1013.7
20260831220129 89 360 6.0 13.0 0.00 0.25 0.01 50 1013.7
20260831220029 89 360 6.0 13.0 0.00 0.25 0.01 50 1013.8
20260831215918 90 360 5.0 13.0 0.00 0.25 0.01 49 1013.8
20260831215822 90 360 6.0 13.0 0.00 0.25 0.01 48 1013.8
20260831215727 90 360 5.0 13.0 0.00 0.25 0.01 48 1013.9
20260831215633 90 360 3.0 13.0 0.00 0.25 0.01 48 1013.9
20260831215515 90 97 3.0 12.0 0.00 0.25 0.01 48 1013.9
20260831215423 90 63 4.0 12.0 0.00 0.25 0.01 48 1013.9
20260831215325 90 123 5.0 12.0 0.00 0.25 0.01 48 1014.0
20260831215235 90 113 5.0 12.0 0.00 0.25 0.01 48 1014.0
20260831215155 90 95 6.0 12.0 0.00 0.25 0.01 49 1013.9
20260831215018 90 84 7.0 13.0 0.00 0.25 0.01 48 1014.0
20260831214827 89 101 5.0 13.0 0.00 0.25 0.01 48 1014.0
20260831214636 89 90 6.0 13.0 0.00 0.25 0.01 50 1014.1
20260831214533 89 78 7.0 15.0 0.00 0.25 0.01 50 1014.1
20260831214435 89 102 7.0 15.0 0.00 0.25 0.01 49 1014.1
20260831214343 89 113 8.0 15.0 0.00 0.25 0.01 49 1014.3
20260831214223 89 110 6.0 15.0 0.00 0.25 0.01 49 1014.2
20260831214126 89 103 6.0 15.0 0.00 0.25 0.01 49 1014.3
20260831214035 90 80 6.0 15.0 0.00 0.25 0.01 49 1014.3
20260831213941 90 140 4.0 15.0 0.00 0.25 0.01 50 1014.3
20260831213822 89 53 7.0 15.0 0.00 0.25 0.01 49 1014.4
20260831213734 89 110 7.0 15.0 0.00 0.25 0.01 49 1014.3
20260831213516 89 75 4.0 14.0 0.00 0.25 0.01 50 1014.3
20260831213418 89 113 3.0 14.0 0.00 0.25 0.01 50 1014.3
20260831213327 89 136 3.0 14.0 0.00 0.25 0.01 50 1014.3
20260831213229 89 146 4.0 14.0 0.00 0.25 0.01 51 1014.3
20260831213140 89 148 3.0 14.0 0.00 0.25 0.01 51 1014.3
20260831213022 89 83 4.0 14.0 0.00 0.25 0.01 51 1014.4
20260831212924 89 94 5.0 14.0 0.00 0.25 0.01 50 1014.4
20260831212832 89 106 6.0 14.0 0.00 0.25 0.01 49 1014.4
20260831212734 89 120 6.0 14.0 0.00 0.25 0.01 49 1014.4
20260831212637 89 123 7.0 14.0 0.00 0.25 0.01 50 1014.5
20260831212529 89 96 6.0 14.0 0.00 0.25 0.01 50 1014.6
20260831212433 89 85 5.0 14.0 0.00 0.25 0.01 51 1014.6
20260831212333 89 103 3.0 15.0 0.00 0.25 0.01 52 1014.5
20260831212216 89 101 4.0 15.0 0.00 0.25 0.01 52 1014.6
20260831212125 89 96 4.0 15.0 0.00 0.25 0.01 52 1014.6
20260831212025 89 96 5.0 15.0 0.00 0.25 0.01 51 1014.7
20260831211933 89 101 6.0 15.0 0.00 0.25 0.01 50 1014.7
20260831211841 89 122 8.0 15.0 0.00 0.25 0.01 50 1014.7
20260831211723 89 94 9.0 15.0 0.00 0.25 0.01 51 1014.8
20260831211642 89 94 9.0 15.0 0.00 0.25 0.01 51 1014.8
20260831211531 89 72 9.0 15.0 0.00 0.25 0.01 50 1014.9
20260831211434 89 72 7.0 14.0 0.00 0.25 0.01 52 1014.9
20260831211343 89 129 6.0 13.0 0.00 0.25 0.01 53 1014.9
20260831211226 89 75 6.0 13.0 0.00 0.25 0.01 53 1015.0
20260831211136 89 92 5.0 13.0 0.00 0.25 0.01 53 1015.0
20260831211018 89 123 7.0 13.0 0.00 0.25 0.01 54 1015.0
20260831210919 89 87 6.0 13.0 0.00 0.25 0.01 53 1015.1
20260831210822 90 65 4.0 13.0 0.00 0.25 0.01 53 1015.1
20260831210732 90 113 3.0 11.0 0.00 0.25 0.01 55 1015.1
20260831210616 90 60 6.0 11.0 0.00 0.25 0.01 53 1015.1
20260831210519 90 74 5.0 11.0 0.00 0.25 0.01 53 1015.1
20260831210426 90 110 3.0 11.0 0.00 0.25 0.01 56 1015.1
20260831210328 89 79 2.0 11.0 0.00 0.25 0.01 55 1015.2
20260831210229 89 86 3.0 11.0 0.00 0.25 0.01 55 1015.3
20260831210139 89 119 5.0 12.0 0.00 0.25 0.01 55 1015.3
20260831210030 89 106 5.0 12.0 0.00 0.25 0.01 56 1015.3
20260831205933 88 76 4.0 12.0 0.00 0.25 0.01 56 1015.3
20260831205834 88 96 4.0 12.0 0.00 0.25 0.01 56 1015.3
20260831205717 88 87 4.0 13.0 0.00 0.25 0.01 56 1015.3
20260831205620 88 134 4.0 13.0 0.00 0.25 0.01 56 1015.3
20260831205529 88 96 4.0 13.0 0.00 0.25 0.01 56 1015.3
20260831205430 88 110 6.0 13.0 0.00 0.25 0.01 56 1015.4
20260831205315 88 113 6.0 13.0 0.00 0.25 0.01 56 1015.4
20260831205223 88 101 5.0 13.0 0.00 0.25 0.01 57 1015.4
20260831205125 88 77 8.0 13.0 0.00 0.25 0.01 57 1015.4
20260831205036 88 114 7.0 13.0 0.00 0.25 0.01 56 1015.4
20260831204918 88 122 4.0 13.0 0.00 0.25 0.01 57 1015.3
20260831204820 87 146 3.0 13.0 0.00 0.25 0.01 57 1015.3
20260831204733 87 103 3.0 13.0 0.00 0.25 0.01 57 1015.3
20260831204633 88 131 5.0 13.0 0.00 0.25 0.01 56 1015.4
20260831204535 88 113 6.0 13.0 0.00 0.25 0.01 56 1015.4
20260831204416 88 108 4.0 13.0 0.00 0.25 0.01 56 1015.4
20260831204345 88 117 4.0 13.0 0.00 0.25 0.01 57 1015.3
20260831204225 88 89 5.0 13.0 0.00 0.25 0.01 56 1015.3
20260831204135 88 115 6.0 13.0 0.00 0.25 0.01 56 1015.3
20260831204017 88 115 6.0 13.0 0.00 0.25 0.01 55 1015.4
20260831203919 88 108 5.0 13.0 0.00 0.25 0.01 56 1015.4
20260831203829 88 103 4.0 13.0 0.00 0.25 0.01 56 1015.3
20260831203730 88 139 4.0 13.0 0.00 0.25 0.01 58 1015.3
20260831203700 88 101 4.0 13.0 0.00 0.25 0.01 59 1015.3
20260831203520 87 113 2.0 13.0 0.00 0.25 0.01 58 1015.4
20260831203425 86 104 4.0 13.0 0.00 0.25 0.01 58 1015.4
20260831203336 87 86 6.0 13.0 0.00 0.25 0.01 57 1015.4
20260831203219 87 133 6.0 13.0 0.00 0.25 0.01 57 1015.4
20260831203120 87 138 7.0 13.0 0.00 0.25 0.01 57 1015.4
20260831203029 87 108 7.0 13.0 0.00 0.25 0.01 56 1015.5
20260831202932 87 103 6.0 14.0 0.00 0.25 0.01 57 1015.5
20260831202817 88 103 6.0 14.0 0.00 0.25 0.01 56 1015.4
20260831202747 88 94 7.0 14.0 0.00 0.25 0.01 57 1015.4
20260831202627 88 114 4.0 15.0 0.00 0.25 0.01 57 1015.4
20260831202529 88 120 5.0 15.0 0.00 0.25 0.01 57 1015.4
20260831202439 88 108 6.0 15.0 0.00 0.25 0.01 57 1015.4
20260831202341 88 94 7.0 15.0 0.00 0.25 0.01 57 1015.5
20260831202250 88 105 6.0 15.0 0.00 0.25 0.01 57 1015.5
20260831202150 88 113 3.0 17.0 0.00 0.25 0.01 57 1015.4
20260831202043 88 149 3.0 17.0 0.00 0.25 0.01 58 1015.4
20260831201924 88 153 5.0 17.0 0.00 0.25 0.01 57 1015.4
20260831201833 88 105 6.0 17.0 0.00 0.25 0.01 57 1015.4
20260831201733 88 126 5.0 17.0 0.00 0.25 0.01 56 1015.5
20260831201634 88 125 2.0 17.0 0.00 0.25 0.01 57 1015.4
20260831201542 88 98 3.0 17.0 0.00 0.25 0.01 56 1015.4
20260831201444 88 113 7.0 17.0 0.00 0.25 0.01 56 1015.4
20260831201325 88 117 8.0 17.0 0.00 0.25 0.01 56 1015.4
20260831201236 88 93 7.0 17.0 0.00 0.25 0.01 57 1015.4
20260831201118 87 80 3.0 13.0 0.00 0.25 0.01 57 1015.5
20260831201020 87 94 2.0 13.0 0.00 0.25 0.01 58 1015.5
20260831200928 87 112 2.0 13.0 0.00 0.25 0.01 59 1015.5
20260831200828 87 88 4.0 13.0 0.00 0.25 0.01 59 1015.5
20260831200735 87 130 5.0 13.0 0.00 0.25 0.01 59 1015.5
20260831200643 87 129 6.0 13.0 0.00 0.25 0.01 58 1015.6
20260831200523 87 122 7.0 13.0 0.00 0.25 0.01 57 1015.6
20260831200425 87 108 4.0 13.0 0.00 0.25 0.01 57 1015.6
20260831200336 87 72 2.0 13.0 0.00 0.25 0.01 58 1015.6
20260831200237 87 70 2.0 13.0 0.00 0.25 0.01 58 1015.6
20260831200117 86 70 3.0 13.0 0.00 0.25 0.01 58 1015.6
20260831200044 86 89 5.0 13.0 0.00 0.25 0.01 58 1015.6
20260831200002 86 107 5.0 13.0 0.00 0.25 0.01 57 1015.8
20260831195822 86 97 5.0 12.0 0.00 0.25 0.01 58 1015.7
20260831195725 86 94 4.0 12.0 0.00 0.25 0.01 57 1015.8
20260831195626 86 86 3.0 12.0 0.00 0.25 0.01 58 1015.8
20260831195537 87 87 3.0 12.0 0.00 0.25 0.01 58 1015.8
20260831195423 86 84 3.0 12.0 0.00 0.25 0.01 60 1015.7
20260831195325 86 84 3.0 12.0 0.00 0.25 0.01 59 1015.8
20260831195235 86 87 3.0 12.0 0.00 0.25 0.01 59 1015.8
20260831195117 85 103 4.0 12.0 0.00 0.25 0.01 60 1015.9
20260831195020 85 108 5.0 13.0 0.00 0.25 0.01 59 1015.9
20260831194920 85 117 6.0 13.0 0.00 0.25 0.01 59 1015.8
20260831194834 86 117 5.0 13.0 0.00 0.25 0.01 59 1015.8
20260831194716 85 115 5.0 13.0 0.00 0.25 0.01 61 1015.8
20260831194618 85 114 4.0 13.0 0.00 0.25 0.01 61 1015.6
20260831194519 85 116 5.0 13.0 0.00 0.25 0.01 61 1015.8
20260831194430 85 142 7.0 14.0 0.00 0.25 0.01 61 1015.7
20260831194315 85 133 8.0 14.0 0.00 0.25 0.01 61 1015.6
20260831194218 85 134 6.0 14.0 0.00 0.25 0.01 62 1015.6
20260831194121 85 123 5.0 14.0 0.00 0.25 0.01 62 1015.6
20260831194029 85 133 6.0 14.0 0.00 0.25 0.01 62 1015.7
20260831193932 85 108 6.0 14.0 0.00 0.25 0.01 62 1015.6
20260831193831 84 140 5.0 14.0 0.00 0.25 0.01 62 1015.6
20260831193715 84 115 5.0 14.0 0.00 0.25 0.01 63 1015.7
20260831193624 84 90 7.0 14.0 0.00 0.25 0.01 64 1015.6
20260831193553 84 115 6.0 13.0 0.00 0.25 0.01 64 1015.6
20260831193332 83 97 7.0 14.0 0.00 0.25 0.01 64 1015.8
20260831193254 83 115 7.0 15.0 0.00 0.25 0.01 65 1015.7
20260831193141 83 96 7.0 15.0 0.00 0.25 0.01 65 1015.6
20260831193024 83 127 6.0 15.0 0.00 0.25 0.01 65 1015.8
20260831192949 83 118 5.0 15.0 0.00 0.25 0.01 66 1015.6
20260831192838 83 116 6.0 15.0 0.00 0.25 0.01 66 1015.6
20260831192721 83 153 7.0 15.0 0.00 0.25 0.01 66 1015.8
20260831192644 83 101 8.0 15.0 0.00 0.25 0.01 66 1015.8
20260831192533 83 103 8.0 15.0 0.00 0.25 0.01 66 1015.8
20260831192415 83 111 8.0 15.0 0.00 0.25 0.01 67 1015.8
20260831192321 83 117 8.0 14.0 0.00 0.25 0.01 67 1015.8
20260831192233 83 131 7.0 13.0 0.00 0.25 0.01 67 1015.8
20260831192133 83 116 6.0 13.0 0.00 0.25 0.01 67 1015.8
20260831192034 83 138 7.0 13.0 0.00 0.25 0.01 66 1015.8
20260831191916 83 115 9.0 13.0 0.00 0.25 0.01 66 1015.9
20260831191827 83 139 7.0 12.0 0.00 0.25 0.01 66 1015.8
20260831191732 83 101 4.0 12.0 0.00 0.25 0.01 67 1015.8
20260831191633 82 94 5.0 12.0 0.00 0.25 0.01 67 1015.8
20260831191516 82 95 5.0 12.0 0.00 0.25 0.01 68 1015.9
20260831191425 83 154 3.0 15.0 0.00 0.25 0.01 69 1015.9
20260831191327 82 111 3.0 15.0 0.00 0.25 0.01 69 1015.9
20260831191258 82 110 4.0 15.0 0.00 0.25 0.01 69 1015.9
20260831191140 82 113 4.0 15.0 0.00 0.25 0.01 69 1015.8
20260831191025 82 113 4.0 15.0 0.00 0.25 0.01 70 1015.8
20260831190935 82 115 4.0 15.0 0.00 0.25 0.01 69 1015.8
20260831190817 82 115 6.0 15.0 0.00 0.25 0.01 68 1015.8
20260831190719 83 155 7.0 15.0 0.00 0.25 0.01 68 1015.8
20260831190621 83 105 5.0 15.0 0.00 0.25 0.01 68 1015.9
20260831190516 83 125 4.0 12.0 0.00 0.25 0.01 68 1015.9
20260831190417 82 99 5.0 12.0 0.00 0.25 0.01 68 1015.9
20260831190320 82 91 4.0 12.0 0.00 0.25 0.01 68 1015.8
20260831190229 82 138 5.0 11.0 0.00 0.25 0.01 68 1015.9
20260831190133 82 97 4.0 11.0 0.00 0.25 0.01 68 1015.9
20260831190046 82 90 5.0 11.0 0.00 0.25 0.01 68 1016.0
20260831185922 82 100 5.0 11.0 0.00 0.25 0.01 69 1016.0
20260831185827 82 129 5.0 11.0 0.00 0.25 0.01 69 1016.0
20260831185729 82 115 4.0 11.0 0.00 0.25 0.01 69 1016.1
20260831185638 83 158 4.0 11.0 0.00 0.25 0.01 68 1016.1
20260831185520 83 124 5.0 11.0 0.00 0.25 0.01 68 1016.1
20260831185422 83 110 4.0 11.0 0.00 0.25 0.01 68 1016.1
20260831185324 83 129 4.0 11.0 0.00 0.25 0.01 68 1016.1
20260831185218 83 129 7.0 11.0 0.00 0.25 0.01 68 1016.1
20260831185120 83 108 7.0 11.0 0.00 0.25 0.01 68 1016.1
20260831185021 83 123 4.0 11.0 0.00 0.25 0.01 69 1016.2
20260831184951 83 117 3.0 11.0 0.00 0.25 0.01 70 1016.2
20260831184832 83 110 2.0 11.0 0.00 0.25 0.01 70 1016.2
20260831184740 83 113 4.0 11.0 0.00 0.25 0.01 69 1016.2
20260831184625 83 136 5.0 11.0 0.00 0.25 0.01 70 1016.2
20260831184527 83 139 4.0 10.0 0.00 0.25 0.01 70 1016.1
20260831184436 83 96 3.0 10.0 0.00 0.25 0.01 70 1016.1
20260831184339 82 124 5.0 10.0 0.00 0.25 0.01 69 1016.1
20260831184221 82 110 4.0 10.0 0.00 0.25 0.01 70 1016.2
20260831184150 82 131 2.0 12.0 0.00 0.25 0.01 71 1016.1
20260831184032 82 114 2.0 12.0 0.00 0.25 0.01 71 1016.1
20260831183917 82 103 3.0 12.0 0.00 0.25 0.01 71 1016.1
20260831183827 82 105 4.0 12.0 0.00 0.25 0.01 71 1016.1
20260831183730 81 118 4.0 12.0 0.00 0.25 0.01 72 1016.1
20260831183632 81 119 4.0 12.0 0.00 0.25 0.01 71 1016.1
20260831183542 81 124 5.0 12.0 0.00 0.25 0.01 71 1016.1
20260831183424 81 129 7.0 12.0 0.00 0.25 0.01 71 1016.2
20260831183346 82 142 6.0 12.0 0.00 0.25 0.01 71 1016.2
20260831183233 82 122 5.0 12.0 0.00 0.25 0.01 71 1016.2
20260831183142 82 109 3.0 9.0 0.00 0.25 0.01 71 1016.2
20260831183024 82 102 3.0 9.0 0.00 0.25 0.01 71 1016.2
20260831182928 82 128 4.0 9.0 0.00 0.25 0.01 71 1016.3
20260831182830 82 120 3.0 9.0 0.00 0.25 0.01 72 1016.2
20260831182715 82 129 3.0 9.0 0.00 0.25 0.01 72 1016.3
20260831182625 81 138 3.0 9.0 0.00 0.25 0.01 72 1016.2
20260831182528 81 127 3.0 9.0 0.00 0.25 0.01 72 1016.2
20260831182431 81 124 3.0 9.0 0.00 0.25 0.01 72 1016.2
20260831182327 81 130 3.0 9.0 0.00 0.25 0.01 71 1016.2
20260831182230 81 140 3.0 9.0 0.00 0.25 0.01 71 1016.2
20260831182116 81 118 4.0 10.0 0.00 0.25 0.01 71 1016.2
20260831182018 81 117 2.0 10.0 0.00 0.25 0.01 72 1016.1
20260831181928 81 113 2.0 10.0 0.00 0.25 0.01 72 1016.1
20260831181851 81 124 3.0 10.0 0.00 0.25 0.01 72 1016.1
20260831181718 81 110 4.0 10.0 0.00 0.25 0.01 72 1016.1
20260831181620 81 108 5.0 11.0 0.00 0.25 0.01 72 1016.1
20260831181529 81 103 5.0 11.0 0.00 0.25 0.01 72 1016.0
20260831181430 81 120 4.0 11.0 0.00 0.25 0.01 73 1016.1
20260831181343 81 121 2.0 12.0 0.00 0.25 0.01 73 1016.1
20260831181224 80 105 2.0 12.0 0.00 0.25 0.01 73 1016.1
20260831181133 80 105 2.0 12.0 0.00 0.25 0.01 74 1016.1
20260831181054 80 105 3.0 12.0 0.00 0.25 0.01 74 1016.1
20260831180941 80 108 5.0 12.0 0.00 0.25 0.01 73 1016.2
20260831180843 80 99 4.0 12.0 0.00 0.25 0.01 73 1016.2
20260831180725 80 115 5.0 12.0 0.00 0.25 0.01 73 1016.2
20260831180637 80 114 7.0 12.0 0.00 0.25 0.01 73 1016.2
20260831180520 80 142 7.0 11.0 0.00 0.25 0.01 73 1016.2
20260831180421 80 120 6.0 11.0 0.00 0.25 0.01 73 1016.2
20260831180333 80 114 5.0 11.0 0.00 0.25 0.01 73 1016.2
20260831180215 80 123 3.0 11.0 0.00 0.25 0.01 73 1016.2
20260831180116 80 115 6.0 11.0 0.00 0.25 0.01 73 1016.2
20260831180058 80 127 6.0 11.0 0.00 0.25 0.01 73 1016.2
20260831175932 80 110 6.0 11.0 0.00 0.25 0.01 73 1016.3
20260831175840 80 136 6.0 11.0 0.00 0.25 0.01 73 1016.3
20260831175722 80 113 5.0 11.0 0.00 0.25 0.01 73 1016.4
20260831175624 80 132 3.0 11.0 0.00 0.25 0.01 73 1016.4
20260831175527 80 132 4.0 11.0 0.00 0.25 0.01 73 1016.4
20260831175420 80 112 5.0 11.0 0.00 0.25 0.01 73 1016.5
20260831175322 80 121 5.0 11.0 0.00 0.25 0.01 73 1016.4
20260831175223 80 119 4.0 11.0 0.00 0.25 0.01 73 1016.5
20260831175134 80 122 4.0 10.0 0.00 0.25 0.01 73 1016.5
20260831175016 80 120 4.0 10.0 0.00 0.25 0.01 73 1016.5
20260831174919 80 124 4.0 10.0 0.00 0.25 0.01 73 1016.5
20260831174824 81 130 3.0 10.0 0.00 0.25 0.01 73 1016.5
20260831174734 81 131 4.0 9.0 0.00 0.25 0.01 73 1016.5
20260831174617 81 119 4.0 8.0 0.00 0.25 0.01 73 1016.4
20260831174520 81 145 3.0 10.0 0.00 0.25 0.01 73 1016.5
20260831174422 81 140 3.0 10.0 0.00 0.25 0.01 73 1016.5
20260831174332 81 141 4.0 10.0 0.00 0.25 0.01 72 1016.5
20260831174217 81 143 3.0 10.0 0.00 0.25 0.01 72 1016.4
20260831174118 81 116 3.0 10.0 0.00 0.25 0.01 72 1016.5
20260831174048 81 120 2.0 10.0 0.00 0.25 0.01 72 1016.5
20260831173929 81 103 2.0 10.0 0.00 0.25 0.01 71 1016.4
20260831173832 81 102 3.0 11.0 0.00 0.25 0.01 71 1016.4
20260831173740 81 116 3.0 11.0 0.00 0.25 0.01 71 1016.4
20260831173627 81 110 4.0 11.0 0.00 0.25 0.01 72 1016.4
20260831173530 81 91 5.0 11.0 0.00 0.25 0.01 71 1016.4
20260831173440 81 103 5.0 11.0 0.00 0.25 0.01 71 1016.4
20260831173340 81 125 4.0 11.0 0.00 0.25 0.01 71 1016.4
20260831173310 81 128 3.0 11.0 0.00 0.25 0.01 71 1016.4
20260831173232 81 107 4.0 11.0 0.00 0.25 0.01 72 1016.5
20260831173017 81 105 3.0 7.0 0.00 0.25 0.01 72 1016.4
20260831172947 81 115 3.0 7.0 0.00 0.25 0.01 72 1016.4
20260831172838 81 117 2.0 7.0 0.00 0.25 0.01 72 1016.4
20260831172721 81 121 2.0 7.0 0.00 0.25 0.01 73 1016.5
20260831172621 81 97 3.0 7.0 0.00 0.25 0.01 73 1016.5
20260831172523 81 94 2.0 7.0 0.00 0.25 0.01 73 1016.5
20260831172455 81 110 1.0 6.0 0.00 0.25 0.01 73 1016.5
20260831172333 80 103 2.0 7.0 0.00 0.25 0.01 73 1016.5
20260831172218 80 110 2.0 11.0 0.00 0.25 0.01 73 1016.5
20260831172127 80 105 3.0 11.0 0.00 0.25 0.01 73 1016.5
20260831172047 80 82 3.0 11.0 0.00 0.25 0.01 73 1016.5
20260831171935 80 97 2.0 11.0 0.00 0.25 0.01 74 1016.5
20260831171843 80 86 2.0 11.0 0.00 0.25 0.01 74 1016.5
20260831171804 80 96 2.0 11.0 0.00 0.25 0.01 74 1016.5
20260831171712 80 89 2.0 11.0 0.00 0.25 0.01 74 1016.5
20260831171533 80 90 5.0 11.0 0.00 0.25 0.01 73 1016.6
20260831171425 80 94 4.0 11.0 0.00 0.25 0.01 74 1016.5
20260831171355 80 114 3.0 11.0 0.00 0.25 0.01 74 1016.5
20260831171235 80 92 3.0 11.0 0.00 0.25 0.01 74 1016.5
20260831171145 80 82 3.0 11.0 0.00 0.25 0.01 74 1016.5
20260831171025 79 79 3.0 10.0 0.00 0.25 0.01 74 1016.6
20260831170936 79 71 3.0 10.0 0.00 0.25 0.01 74 1016.6
20260831170835 79 86 3.0 10.0 0.00 0.25 0.01 74 1016.5
20260831170718 79 98 3.0 10.0 0.00 0.25 0.01 74 1016.4
20260831170623 79 94 3.0 10.0 0.00 0.25 0.01 74 1016.5
20260831170533 79 94 4.0 10.0 0.00 0.25 0.01 74 1016.5
20260831170433 79 77 5.0 10.0 0.00 0.25 0.01 74 1016.5
20260831170333 79 99 4.0 10.0 0.00 0.25 0.01 73 1016.5
20260831170241 79 88 3.0 10.0 0.00 0.25 0.01 73 1016.4
20260831170120 79 101 3.0 10.0 0.00 0.25 0.01 73 1016.4
20260831170037 79 107 3.0 11.0 0.00 0.25 0.01 73 1016.4
20260831165935 79 110 3.0 11.0 0.00 0.25 0.01 73 1016.4
20260831165818 79 113 3.0 11.0 0.00 0.25 0.01 73 1016.4
20260831165741 79 83 4.0 11.0 0.00 0.25 0.01 73 1016.4
20260831165629 79 97 4.0 12.0 0.00 0.25 0.01 73 1016.4
20260831165551 79 120 3.0 13.0 0.00 0.25 0.01 73 1016.4
20260831165438 79 105 2.0 13.0 0.00 0.25 0.01 73 1016.4
20260831165323 79 71 4.0 13.0 0.00 0.25 0.01 73 1016.6
20260831165223 79 89 4.0 13.0 0.00 0.25 0.01 73 1016.5
20260831165152 79 110 4.0 13.0 0.00 0.25 0.01 73 1016.6
20260831165033 79 111 6.0 13.0 0.00 0.25 0.01 73 1016.6
20260831164933 79 100 6.0 13.0 0.00 0.25 0.01 73 1016.5
20260831164843 78 89 7.0 13.0 0.00 0.25 0.01 73 1016.6
20260831164723 79 110 6.0 13.0 0.00 0.25 0.01 73 1016.6
20260831164625 78 98 6.0 13.0 0.00 0.25 0.01 73 1016.5
20260831164536 78 82 6.0 12.0 0.00 0.25 0.01 73 1016.5
20260831164418 78 112 7.0 12.0 0.00 0.25 0.01 73 1016.5
20260831164319 79 88 8.0 13.0 0.00 0.25 0.01 73 1016.6
20260831164229 79 101 6.0 13.0 0.00 0.25 0.01 73 1016.6
20260831164115 79 82 4.0 13.0 0.00 0.25 0.01 73 1016.6
20260831164016 79 75 5.0 13.0 0.00 0.25 0.01 73 1016.7
20260831163944 79 80 5.0 13.0 0.00 0.25 0.01 73 1016.6
20260831163845 79 71 5.0 15.0 0.00 0.25 0.01 73 1016.6
20260831163754 79 89 6.0 15.0 0.00 0.25 0.01 73 1016.6
20260831163615 79 78 7.0 15.0 0.00 0.25 0.01 72 1016.6
20260831163517 79 68 6.0 15.0 0.00 0.25 0.01 72 1016.6
20260831163426 79 83 5.0 15.0 0.00 0.25 0.01 72 1016.5
20260831163332 79 57 7.0 15.0 0.00 0.25 0.01 71 1016.5
20260831163233 78 69 7.0 15.0 0.00 0.25 0.01 71 1016.5
20260831163141 79 72 7.0 15.0 0.00 0.25 0.01 71 1016.4
20260831163102 79 82 8.0 15.0 0.00 0.25 0.01 71 1016.5
20260831162929 79 93 8.0 14.0 0.00 0.25 0.01 71 1016.4
20260831162830 79 70 5.0 14.0 0.00 0.25 0.01 71 1016.4
20260831162738 78 110 5.0 13.0 0.00 0.25 0.01 71 1016.4
20260831162624 78 82 7.0 13.0 0.00 0.25 0.01 71 1016.4
20260831162525 78 98 5.0 13.0 0.00 0.25 0.01 71 1016.4
20260831162426 78 74 4.0 12.0 0.00 0.25 0.01 72 1016.4
20260831162336 78 82 6.0 15.0 0.00 0.25 0.01 72 1016.4
20260831162217 78 102 8.0 15.0 0.00 0.25 0.01 72 1016.3
20260831162139 78 82 5.0 15.0 0.00 0.25 0.01 73 1016.4
20260831162032 78 88 3.0 15.0 0.00 0.25 0.01 74 1016.4
20260831161934 78 74 2.0 15.0 0.00 0.25 0.01 73 1016.3
20260831161842 78 70 2.0 15.0 0.00 0.25 0.01 74 1016.3
20260831161725 78 68 2.0 15.0 0.00 0.25 0.01 73 1016.3
20260831161626 78 77 6.0 15.0 0.00 0.25 0.01 73 1016.2
20260831161526 78 46 8.0 15.0 0.00 0.25 0.01 73 1016.2
20260831161441 78 72 5.0 15.0 0.00 0.25 0.01 72 1016.2
20260831161322 78 74 4.0 15.0 0.00 0.25 0.01 72 1016.1
20260831161223 78 119 5.0 15.0 0.00 0.25 0.01 71 1016.2
20260831161133 78 63 4.0 15.0 0.00 0.25 0.01 71 1016.2
20260831161034 78 58 5.0 15.0 0.00 0.25 0.01 71 1016.0
20260831160943 78 61 6.0 15.0 0.00 0.25 0.01 71 1016.1
20260831160827 78 50 9.0 15.0 0.00 0.25 0.01 71 1016.0
20260831160731 78 82 9.0 15.0 0.00 0.25 0.01 71 1016.0
20260831160633 78 70 6.0 15.0 0.00 0.25 0.01 72 1016.0
20260831160540 78 45 4.0 15.0 0.00 0.25 0.01 72 1015.9
20260831160422 78 70 3.0 15.0 0.00 0.25 0.01 73 1015.8
20260831160323 78 84 6.0 15.0 0.00 0.25 0.01 73 1015.9
20260831160233 79 100 7.0 15.0 0.00 0.25 0.01 73 1015.9
20260831160117 79 67 8.0 15.0 0.00 0.25 0.01 74 1015.8
20260831160036 79 42 8.0 15.0 0.00 0.25 0.01 74 1015.8
20260831155927 79 82 6.0 15.0 0.00 0.25 0.01 74 1015.9
20260831155836 79 83 4.0 15.0 0.00 0.25 0.01 74 1015.9
20260831155717 79 75 3.0 15.0 0.00 0.25 0.01 74 1015.9
20260831155619 79 68 4.0 15.0 0.00 0.25 0.01 74 1015.8
20260831155547 79 77 4.0 15.0 0.00 0.25 0.01 74 1015.8
20260831155435 79 76 5.0 15.0 0.00 0.25 0.01 74 1015.8
20260831155321 79 59 3.0 15.0 0.00 0.25 0.01 74 1015.8
20260831155224 78 69 5.0 15.0 0.00 0.25 0.01 74 1015.8
20260831155125 78 70 8.0 15.0 0.00 0.25 0.01 73 1015.7
20260831155036 79 43 5.0 13.0 0.00 0.25 0.01 74 1015.7
20260831154918 78 49 4.0 11.0 0.00 0.25 0.01 74 1015.8
20260831154825 78 77 5.0 11.0 0.00 0.25 0.01 74 1015.6
20260831154734 78 60 6.0 11.0 0.00 0.25 0.01 74 1015.6
20260831154615 78 58 3.0 11.0 0.00 0.25 0.01 74 1015.6
20260831154544 78 67 3.0 11.0 0.00 0.25 0.01 74 1015.6
20260831154424 78 103 5.0 11.0 0.00 0.25 0.01 74 1015.8
20260831154326 78 56 4.0 11.0 0.00 0.25 0.01 75 1015.7
20260831154228 78 78 4.0 11.0 0.00 0.25 0.01 75 1015.8
20260831154142 78 109 4.0 10.0 0.00 0.25 0.01 75 1015.8
20260831154023 78 99 5.0 10.0 0.00 0.25 0.01 76 1015.9
20260831153925 78 79 4.0 10.0 0.00 0.25 0.01 76 1015.9
20260831153825 78 104 4.0 10.0 0.00 0.25 0.01 76 1015.9
20260831153734 78 117 3.0 10.0 0.00 0.25 0.01 77 1015.9
20260831153621 78 110 2.0 10.0 0.00 0.25 0.01 77 1016.0
20260831153523 78 126 3.0 10.0 0.00 0.25 0.01 77 1016.0
20260831153454 78 100 3.0 10.0 0.00 0.25 0.01 78 1016.0
20260831153336 78 121 3.0 10.0 0.00 0.25 0.01 78 1016.0
20260831153218 78 100 3.0 10.0 0.00 0.25 0.01 78 1015.9
20260831153120 78 106 3.0 10.0 0.00 0.25 0.01 79 1015.9
20260831153028 78 89 3.0 10.0 0.00 0.25 0.01 79 1015.9
20260831152952 78 113 1.0 7.0 0.00 0.25 0.01 80 1015.9
20260831152851 78 114 2.0 7.0 0.00 0.25 0.01 80 1015.9
20260831152739 77 119 3.0 7.0 0.00 0.25 0.01 79 1015.9
20260831152620 77 127 2.0 6.0 0.00 0.25 0.01 80 1015.9
20260831152549 77 131 2.0 6.0 0.00 0.25 0.01 80 1015.9
20260831152449 77 139 2.0 6.0 0.00 0.25 0.01 80 1015.9
20260831152357 77 108 3.0 6.0 0.00 0.25 0.01 80 1015.9
20260831152217 77 122 3.0 6.0 0.00 0.25 0.01 80 1015.9
20260831152146 77 128 2.0 6.0 0.00 0.25 0.01 80 1015.8
20260831152032 77 131 2.0 6.0 0.00 0.25 0.01 80 1015.8
20260831151933 77 131 2.0 6.0 0.00 0.25 0.01 80 1015.8
20260831151839 77 131 2.0 8.0 0.00 0.25 0.01 80 1015.8
20260831151722 77 133 2.0 8.0 0.00 0.25 0.01 80 1015.8
20260831151624 77 134 3.0 11.0 0.00 0.25 0.01 80 1015.7
20260831151525 77 125 2.0 11.0 0.01 0.25 0.01 80 1015.6
20260831151439 77 117 2.0 11.0 0.01 0.25 0.01 80 1015.6
20260831151322 77 121 2.0 11.0 0.01 0.25 0.01 80 1015.5
20260831151223 77 120 3.0 11.0 0.01 0.25 0.01 80 1015.5
20260831151135 77 121 3.0 11.0 0.01 0.25 0.01 80 1015.5
20260831151016 77 113 3.0 11.0 0.01 0.25 0.01 79 1015.4
20260831150922 77 105 5.0 11.0 0.01 0.25 0.01 79 1015.5
20260831150823 77 110 5.0 11.0 0.01 0.25 0.01 79 1015.5
20260831150733 77 132 5.0 11.0 0.01 0.25 0.01 79 1015.5
20260831150633 77 131 5.0 11.0 0.01 0.25 0.01 79 1015.5
20260831150533 77 120 6.0 11.0 0.01 0.25 0.01 79 1015.5
20260831150440 77 98 6.0 11.0 0.01 0.25 0.01 79 1015.5
20260831150328 77 146 5.0 12.0 0.01 0.25 0.01 79 1015.5
20260831150229 77 113 4.0 12.0 0.01 0.25 0.01 79 1015.4
20260831150132 77 111 5.0 12.0 0.01 0.25 0.01 78 1015.4
20260831150032 77 118 6.0 12.0 0.01 0.25 0.01 78 1015.4
20260831145921 77 120 4.0 12.0 0.01 0.25 0.01 78 1015.4
20260831145821 77 105 5.0 12.0 0.01 0.25 0.01 78 1015.4
20260831145736 77 116 5.0 12.0 0.01 0.25 0.01 78 1015.4
20260831145638 77 115 6.0 12.0 0.01 0.25 0.01 78 1015.3
20260831145546 77 126 6.0 12.0 0.01 0.25 0.01 78 1015.2
20260831145446 78 111 6.0 16.0 0.01 0.25 0.01 78 1015.2
20260831145336 78 110 7.0 16.0 0.01 0.25 0.01 78 1015.2
20260831145238 78 105 6.0 16.0 0.01 0.25 0.01 78 1015.2
20260831145125 78 110 3.0 16.0 0.01 0.25 0.01 78 1015.1
20260831145025 78 101 3.0 16.0 0.01 0.25 0.01 77 1015.1
20260831144941 78 105 3.0 16.0 0.01 0.25 0.01 77 1015.1
20260831144822 78 113 6.0 16.0 0.01 0.25 0.01 77 1015.1
20260831144722 78 112 8.0 16.0 0.01 0.25 0.01 77 1015.1
20260831144631 78 120 7.0 16.0 0.01 0.25 0.01 77 1015.1
20260831144531 78 83 6.0 12.0 0.01 0.25 0.01 77 1015.1
20260831144439 78 99 6.0 11.0 0.01 0.25 0.01 77 1015.1
20260831144321 78 108 7.0 11.0 0.01 0.25 0.01 77 1015.1
20260831144247 78 136 8.0 11.0 0.01 0.25 0.01 77 1015.2
20260831144135 78 118 7.0 11.0 0.01 0.25 0.01 77 1015.2
20260831144016 78 119 5.0 10.0 0.01 0.25 0.01 77 1015.1
20260831143918 78 114 5.0 10.0 0.01 0.25 0.01 77 1015.2
20260831143845 78 110 5.0 10.0 0.01 0.25 0.01 76 1015.2
20260831143725 78 124 4.0 10.0 0.01 0.25 0.01 76 1015.2
20260831143656 78 120 4.0 10.0 0.01 0.25 0.01 76 1015.2
20260831143519 78 120 3.0 8.0 0.01 0.25 0.01 76 1015.1
20260831143420 78 111 4.0 8.0 0.01 0.25 0.01 76 1015.1
20260831143320 78 120 4.0 8.0 0.01 0.25 0.01 76 1015.0
20260831143249 78 134 4.0 8.0 0.01 0.25 0.01 76 1015.0
20260831143137 78 120 2.0 10.0 0.01 0.25 0.01 76 1015.0
20260831143019 78 113 3.0 10.0 0.01 0.25 0.01 76 1014.8
20260831142924 78 110 4.0 13.0 0.01 0.25 0.01 76 1014.9
20260831142845 78 77 4.0 13.0 0.01 0.25 0.01 76 1014.9
20260831142745 78 100 4.0 13.0 0.01 0.25 0.01 76 1014.9
20260831142634 78 110 4.0 13.0 0.01 0.25 0.01 75 1014.9
20260831142516 79 92 4.0 13.0 0.01 0.25 0.01 75 1014.8
20260831142418 79 89 5.0 15.0 0.01 0.25 0.01 75 1014.8
20260831142326 79 95 4.0 15.0 0.01 0.25 0.01 75 1014.8
20260831142227 79 105 5.0 15.0 0.01 0.25 0.01 74 1014.9
20260831142200 79 111 6.0 15.0 0.01 0.25 0.01 74 1014.9
20260831142021 79 103 6.0 15.0 0.01 0.25 0.01 74 1014.9
20260831141923 79 84 6.0 15.0 0.01 0.25 0.01 73 1014.8
20260831141853 79 112 5.0 15.0 0.01 0.25 0.01 73 1014.8
20260831141733 79 109 5.0 15.0 0.01 0.25 0.01 73 1014.8
20260831141633 79 98 6.0 15.0 0.01 0.25 0.01 73 1014.8
20260831141523 80 107 7.0 13.0 0.00 0.24 0.00 72 1014.7
20260831141424 80 123 7.0 13.0 0.00 0.24 0.00 72 1014.6
20260831141325 80 111 5.0 11.0 0.00 0.24 0.00 72 1014.6
20260831141254 80 128 4.0 11.0 0.00 0.24 0.00 72 1014.6
20260831141200 80 115 4.0 11.0 0.00 0.24 0.00 72 1014.6
20260831141022 80 107 6.0 11.0 0.00 0.24 0.00 71 1014.6
20260831140924 80 111 6.0 11.0 0.00 0.24 0.00 71 1014.6
20260831140832 80 123 5.0 11.0 0.00 0.24 0.00 71 1014.6
20260831140739 80 128 6.0 11.0 0.00 0.24 0.00 71 1014.6
20260831140618 80 123 6.0 11.0 0.00 0.24 0.00 71 1014.5
20260831140521 80 105 7.0 11.0 0.00 0.24 0.00 71 1014.5
20260831140431 80 122 5.0 10.0 0.00 0.24 0.00 71 1014.5
20260831140333 80 120 4.0 10.0 0.00 0.24 0.00 70 1014.4
20260831140217 80 98 3.0 10.0 0.00 0.24 0.00 70 1014.3
20260831140118 80 95 3.0 10.0 0.00 0.24 0.00 70 1014.3
20260831140040 80 92 4.0 10.0 0.00 0.24 0.00 70 1014.3
20260831135958 80 125 4.0 10.0 0.00 0.24 0.00 70 1014.3
20260831135816 80 104 4.0 10.0 0.00 0.24 0.00 69 1014.1
20260831135718 80 111 4.0 10.0 0.00 0.24 0.00 69 1014.1
20260831135625 80 127 4.0 10.0 0.00 0.24 0.00 69 1014.2
20260831135532 80 110 3.0 10.0 0.00 0.24 0.00 69 1014.2
20260831135433 80 96 2.0 10.0 0.00 0.24 0.00 69 1014.1
20260831135342 80 94 2.0 10.0 0.00 0.24 0.00 69 1014.0
20260831135224 80 113 2.0 8.0 0.00 0.24 0.00 69 1013.9
20260831135156 80 115 2.0 9.0 0.00 0.24 0.00 69 1013.9
20260831135035 81 124 3.0 10.0 0.00 0.24 0.00 68 1013.8
20260831134922 81 131 3.0 10.0 0.00 0.24 0.00 68 1013.8
20260831134824 81 98 1.0 10.0 0.00 0.24 0.00 68 1013.7
20260831134735 81 97 1.0 10.0 0.00 0.24 0.00 68 1013.7
20260831134634 81 96 2.0 10.0 0.00 0.24 0.00 68 1013.7
20260831134543 81 90 3.0 10.0 0.00 0.24 0.00 68 1013.7
20260831134423 81 115 4.0 10.0 0.00 0.24 0.00 68 1013.6
20260831134323 81 112 4.0 10.0 0.00 0.24 0.00 68 1013.6
20260831134237 81 102 4.0 10.0 0.00 0.24 0.00 68 1013.6
20260831134121 81 72 3.0 9.0 0.00 0.24 0.00 68 1013.6
20260831134021 81 121 3.0 9.0 0.00 0.24 0.00 68 1013.6
20260831133923 81 122 3.0 9.0 0.00 0.24 0.00 68 1013.6
20260831133833 81 124 2.0 9.0 0.00 0.24 0.00 68 1013.6
20260831133732 81 100 2.0 9.0 0.00 0.24 0.00 68 1013.6
20260831133618 81 102 2.0 9.0 0.00 0.24 0.00 68 1013.6
20260831133521 80 110 2.0 9.0 0.00 0.24 0.00 68 1013.6
20260831133450 80 115 2.0 9.0 0.00 0.24 0.00 69 1013.6
20260831133358 80 89 2.0 8.0 0.00 0.24 0.00 69 1013.5
20260831133138 80 101 3.0 8.0 0.00 0.24 0.00 69 1013.5
20260831133020 80 84 1.0 6.0 0.00 0.24 0.00 70 1013.4
20260831132929 80 275 1.0 5.0 0.00 0.24 0.00 70 1013.5
20260831132835 80 275 1.0 5.0 0.00 0.24 0.00 70 1013.5
20260831132643 80 101 3.0 6.0 0.00 0.24 0.00 69 1013.3
20260831132533 80 103 3.0 6.0 0.00 0.24 0.00 69 1013.3
20260831132433 80 102 2.0 6.0 0.00 0.24 0.00 69 1013.2
20260831132333 80 91 1.0 6.0 0.00 0.24 0.00 69 1013.2
20260831132242 80 91 1.0 6.0 0.00 0.24 0.00 69 1013.1
20260831132148 80 91 1.0 6.0 0.00 0.24 0.00 69 1013.1
20260831132030 80 88 2.0 6.0 0.00 0.24 0.00 68 1013.1
20260831131939 81 88 2.0 6.0 0.00 0.24 0.00 68 1013.0
20260831131820 80 88 2.0 5.0 0.00 0.24 0.00 68 1013.0
20260831131749 81 88 2.0 5.0 0.00 0.24 0.00 68 1013.0
20260831131629 80 91 2.0 5.0 0.00 0.24 0.00 68 1013.0
20260831131539 81 91 2.0 5.0 0.00 0.24 0.00 68 1013.0
20260831131424 80 91 1.0 5.0 0.00 0.24 0.00 68 1013.1
20260831131328 80 91 1.0 5.0 0.00 0.24 0.00 68 1013.0
20260831131229 80 91 2.0 5.0 0.00 0.24 0.00 68 1013.0
20260831131138 80 91 3.0 5.0 0.00 0.24 0.00 68 1013.0
20260831131038 81 91 3.0 4.0 0.00 0.24 0.00 68 1012.9
20260831130918 81 91 3.0 4.0 0.00 0.24 0.00 68 1012.7
20260831130832 81 91 3.0 4.0 0.00 0.24 0.00 68 1012.7
20260831130733 81 91 2.0 4.0 0.00 0.24 0.00 68 1012.8
20260831130701 81 91 2.0 4.0 0.00 0.24 0.00 68 1012.8
20260831130542 81 91 2.0 4.0 0.00 0.24 0.00 67 1012.8
20260831130422 81 91 2.0 4.0 0.00 0.24 0.00 67 1012.9
20260831130333 81 91 2.0 4.0 0.00 0.24 0.00 66 1012.9
20260831130234 81 91 2.0 5.0 0.00 0.24 0.00 66 1012.9
20260831130119 81 91 1.0 6.0 0.00 0.24 0.00 66 1012.8
20260831130042 81 91 1.0 6.0 0.00 0.24 0.00 66 1012.8
20260831125953 81 91 0.0 6.0 0.00 0.24 0.00 66 1012.9
20260831125838 81 91 1.0 6.0 0.00 0.24 0.00 66 1012.9
20260831125720 81 91 1.0 6.0 0.00 0.24 0.00 66 1012.8
20260831125622 81 91 1.0 6.0 0.00 0.24 0.00 66 1012.8
20260831125532 81 91 2.0 6.0 0.00 0.24 0.00 66 1012.8
20260831125417 81 91 4.0 7.0 0.00 0.24 0.00 66 1012.7
20260831125320 81 91 3.0 7.0 0.00 0.24 0.00 66 1012.7
20260831125222 81 91 2.0 7.0 0.00 0.24 0.00 66 1012.7
20260831125132 81 91 2.0 7.0 0.00 0.24 0.00 66 1012.7
20260831125035 81 91 3.0 7.0 0.00 0.24 0.00 66 1012.7
20260831124924 81 94 3.0 7.0 0.00 0.24 0.00 66 1012.6
20260831124829 81 94 2.0 7.0 0.00 0.24 0.00 66 1012.8
20260831124732 81 94 3.0 7.0 0.00 0.24 0.00 66 1012.8
20260831124640 81 95 3.0 7.0 0.00 0.24 0.00 66 1012.8
20260831124523 81 96 2.0 5.0 0.00 0.24 0.00 66 1012.8
20260831124425 81 96 1.0 6.0 0.00 0.24 0.00 66 1012.8
20260831124326 81 96 3.0 6.0 0.00 0.24 0.00 66 1012.8
20260831124238 81 96 3.0 6.0 0.00 0.24 0.00 66 1012.7
20260831124120 81 96 3.0 6.0 0.00 0.24 0.00 66 1012.7
20260831124022 81 96 2.0 6.0 0.00 0.24 0.00 66 1012.6
20260831123932 81 97 2.0 6.0 0.00 0.24 0.00 66 1012.6
20260831123835 81 96 2.0 6.0 0.00 0.24 0.00 66 1012.6
20260831123715 81 96 3.0 6.0 0.00 0.24 0.00 66 1012.6
20260831123622 81 97 2.0 6.0 0.00 0.24 0.00 66 1012.6
20260831123532 81 99 2.0 5.0 0.00 0.24 0.00 66 1012.6
20260831123433 81 99 2.0 5.0 0.00 0.24 0.00 66 1012.6
20260831123333 81 100 2.0 7.0 0.00 0.24 0.00 66 1012.5
20260831123219 81 100 3.0 7.0 0.00 0.24 0.00 65 1012.5
20260831123121 81 100 3.0 7.0 0.00 0.24 0.00 65 1012.5
20260831123028 81 101 2.0 7.0 0.00 0.24 0.00 65 1012.6
20260831122935 81 101 2.0 7.0 0.00 0.24 0.00 65 1012.6
20260831122816 81 101 2.0 7.0 0.00 0.24 0.00 65 1012.5
20260831122726 81 101 2.0 7.0 0.00 0.24 0.00 66 1012.4
20260831122536 81 102 4.0 6.0 0.00 0.24 0.00 66 1012.4
20260831122418 81 103 2.0 6.0 0.00 0.24 0.00 66 1012.4
20260831122323 81 103 2.0 6.0 0.00 0.24 0.00 66 1012.4
20260831122252 81 103 2.0 5.0 0.00 0.24 0.00 66 1012.4
20260831122159 81 103 2.0 5.0 0.00 0.24 0.00 66 1012.4
20260831122021 81 103 2.0 5.0 0.00 0.24 0.00 66 1012.3
20260831121923 81 104 2.0 5.0 0.00 0.24 0.00 66 1012.3
20260831121825 81 104 2.0 5.0 0.00 0.24 0.00 66 1012.3
20260831121735 81 105 1.0 5.0 0.00 0.24 0.00 66 1012.3
20260831121621 81 105 1.0 6.0 0.00 0.24 0.00 66 1012.3
20260831121523 81 105 1.0 6.0 0.00 0.24 0.00 66 1012.3
20260831121453 81 105 2.0 6.0 0.00 0.24 0.00 66 1012.3
20260831121333 81 105 2.0 6.0 0.00 0.24 0.00 66 1012.3
20260831121217 81 105 3.0 6.0 0.00 0.24 0.00 66 1012.4
20260831121117 81 106 2.0 6.0 0.00 0.24 0.00 66 1012.4
20260831121032 81 107 1.0 6.0 0.00 0.24 0.00 66 1012.4
20260831120934 81 107 2.0 6.0 0.00 0.24 0.00 66 1012.5
20260831120816 81 107 3.0 6.0 0.00 0.24 0.00 66 1012.4
20260831120726 81 109 2.0 5.0 0.00 0.24 0.00 66 1012.4
20260831120648 81 109 2.0 5.0 0.00 0.24 0.00 66 1012.4
20260831120538 81 109 2.0 5.0 0.00 0.24 0.00 66 1012.4
20260831120425 81 109 2.0 5.0 0.00 0.24 0.00 67 1012.3
20260831120328 81 109 1.0 4.0 0.00 0.24 0.00 66 1012.3
20260831120229 81 109 1.0 4.0 0.00 0.24 0.00 66 1012.3
20260831120139 81 109 1.0 5.0 0.00 0.24 0.00 66 1012.3
20260831120032 81 109 1.0 5.0 0.00 0.24 0.00 66 1012.2
20260831115922 81 109 1.0 5.0 0.00 0.24 0.00 66 1012.3
20260831115836 81 108 1.0 5.0 0.00 0.24 0.00 66 1012.3
20260831115717 81 108 1.0 5.0 0.00 0.24 0.00 66 1012.2
20260831115619 81 108 2.0 5.0 0.00 0.24 0.00 66 1012.3
20260831115521 81 108 2.0 5.0 0.00 0.24 0.00 66 1012.3
20260831115433 81 108 2.0 5.0 0.00 0.24 0.00 66 1012.3
20260831115334 81 108 1.0 5.0 0.00 0.24 0.00 66 1012.3
20260831115241 81 108 0.0 5.0 0.00 0.24 0.00 66 1012.2
20260831115128 81 108 1.0 5.0 0.00 0.24 0.00 66 1012.3
20260831115033 81 108 1.0 5.0 0.00 0.24 0.00 66 1012.3
20260831115001 81 108 1.0 5.0 0.00 0.24 0.00 66 1012.1
20260831114841 81 108 2.0 6.0 0.00 0.24 0.00 65 1012.3
20260831114722 81 108 2.0 6.0 0.00 0.24 0.00 65 1012.3
20260831114633 81 108 2.0 6.0 0.00 0.24 0.00 65 1012.3
20260831114519 81 108 2.0 6.0 0.00 0.24 0.00 65 1012.2
20260831114421 81 108 2.0 6.0 0.00 0.24 0.00 65 1012.3
20260831114333 81 108 2.0 6.0 0.00 0.24 0.00 65 1012.3
20260831114232 81 108 2.0 6.0 0.00 0.24 0.00 65 1012.2
20260831114133 80 108 3.0 6.0 0.00 0.24 0.00 66 1012.3
20260831114042 80 106 3.0 6.0 0.00 0.24 0.00 67 1012.2
20260831113928 80 106 2.0 6.0 0.00 0.24 0.00 67 1012.2
20260831113831 80 106 1.0 6.0 0.00 0.24 0.00 67 1012.2
20260831113739 80 105 1.0 5.0 0.00 0.24 0.00 67 1012.1
20260831113639 80 105 2.0 5.0 0.00 0.24 0.00 67 1012.2
20260831113528 80 105 2.0 6.0 0.00 0.24 0.00 68 1012.2
20260831113429 80 105 2.0 6.0 0.00 0.24 0.00 68 1012.2
20260831113329 80 105 2.0 6.0 0.00 0.24 0.00 69 1012.1
20260831113241 80 105 2.0 6.0 0.00 0.24 0.00 69 1012.0
20260831113122 80 105 1.0 6.0 0.00 0.24 0.00 69 1012.1
20260831113024 80 103 1.0 6.0 0.00 0.24 0.00 70 1012.0
20260831112932 80 103 1.0 6.0 0.00 0.24 0.00 70 1012.0
20260831112842 80 103 1.0 6.0 0.00 0.24 0.00 70 1012.0
20260831112725 80 103 2.0 6.0 0.00 0.24 0.00 70 1012.1
20260831112625 80 103 1.0 4.0 0.00 0.24 0.00 70 1012.0
20260831112554 80 103 1.0 4.0 0.00 0.24 0.00 70 1012.0
20260831112422 80 103 0.0 0.0 0.00 0.24 0.00 70 1012.0
20260831112333 80 103 0.0 0.0 0.00 0.24 0.00 70 1012.0
20260831112234 80 103 0.0 0.0 0.00 0.24 0.00 70 1011.9
20260831112116 80 103 0.0 0.0 0.00 0.24 0.00 70 1011.9
20260831112016 80 103 0.0 0.0 0.00 0.24 0.00 71 1011.9
20260831111925 80 103 0.0 0.0 0.00 0.24 0.00 70 1011.9
20260831111850 80 103 0.0 0.0 0.00 0.24 0.00 70 1011.9
20260831111739 80 103 0.0 0.0 0.00 0.24 0.00 70 1011.9
20260831111642 80 103 0.0 0.0 0.00 0.24 0.00 70 1011.8
20260831111522 80 103 0.0 0.0 0.00 0.24 0.00 70 1011.8
20260831111431 80 103 0.0 0.0 0.00 0.24 0.00 70 1011.8
20260831111331 80 103 0.0 2.0 0.00 0.24 0.00 70 1011.7
20260831111231 80 103 0.0 2.0 0.00 0.24 0.00 70 1011.7
20260831111144 80 103 0.0 2.0 0.00 0.24 0.00 70 1011.6
20260831111024 80 103 0.0 2.0 0.00 0.24 0.00 70 1011.6
20260831110934 80 103 0.0 2.0 0.00 0.24 0.00 70 1011.6
20260831110816 80 103 0.0 2.0 0.00 0.24 0.00 70 1011.5
20260831110736 80 103 0.0 2.0 0.00 0.24 0.00 70 1011.5
20260831110626 80 103 1.0 2.0 0.00 0.24 0.00 70 1011.4
20260831110547 80 103 1.0 2.0 0.00 0.24 0.00 70 1011.3
20260831110440 80 103 0.0 2.0 0.00 0.24 0.00 70 1011.3
20260831110320 80 103 0.0 3.0 0.00 0.24 0.00 70 1011.3
20260831110242 80 103 0.0 3.0 0.00 0.24 0.00 71 1011.3
20260831110133 80 103 0.0 3.0 0.00 0.24 0.00 71 1011.3
20260831110045 80 103 0.0 3.0 0.00 0.24 0.00 71 1011.3
20260831105915 80 103 0.0 3.0 0.00 0.24 0.00 70 1011.3
20260831105829 80 103 0.0 5.0 0.00 0.24 0.00 70 1011.3
20260831105731 80 103 0.0 5.0 0.00 0.24 0.00 70 1011.3
20260831105659 80 103 1.0 5.0 0.00 0.24 0.00 70 1011.3
20260831105519 80 103 1.0 5.0 0.00 0.24 0.00 70 1011.4
20260831105421 80 102 1.0 5.0 0.00 0.24 0.00 70 1011.3
20260831105323 80 102 0.0 5.0 0.00 0.24 0.00 70 1011.3
20260831105237 80 102 1.0 5.0 0.00 0.24 0.00 70 1011.3
20260831105117 80 102 2.0 5.0 0.00 0.24 0.00 70 1011.3
20260831105020 80 102 1.0 5.0 0.00 0.24 0.00 70 1011.3
20260831104922 80 102 1.0 3.0 0.00 0.24 0.00 70 1011.3
20260831104833 80 102 1.0 3.0 0.00 0.24 0.00 70 1011.3
20260831104734 80 102 1.0 3.0 0.00 0.24 0.00 70 1011.2
20260831104644 80 102 2.0 3.0 0.00 0.24 0.00 70 1011.1
20260831104544 80 102 2.0 3.0 0.00 0.24 0.00 70 1011.2
20260831104433 80 102 1.0 3.0 0.00 0.24 0.00 70 1011.2
20260831104334 80 102 1.0 3.0 0.00 0.24 0.00 70 1011.1
20260831104241 80 102 0.0 4.0 0.00 0.24 0.00 70 1011.1
20260831104123 80 102 0.0 4.0 0.00 0.24 0.00 70 1011.0
20260831104026 80 102 0.0 4.0 0.00 0.24 0.00 70 1011.1
20260831103933 80 102 0.0 4.0 0.00 0.24 0.00 70 1011.1
20260831103842 80 102 1.0 4.0 0.00 0.24 0.00 70 1011.1
20260831103723 80 102 1.0 5.0 0.00 0.24 0.00 70 1011.1
20260831103654 80 102 1.0 5.0 0.00 0.24 0.00 69 1011.1
20260831103534 80 102 1.0 5.0 0.00 0.24 0.00 70 1011.1
20260831103415 80 102 1.0 5.0 0.00 0.24 0.00 70 1011.0
20260831103324 80 102 0.0 5.0 0.00 0.24 0.00 70 1011.0
20260831103245 80 102 0.0 5.0 0.00 0.24 0.00 70 1011.0
20260831103138 80 102 1.0 5.0 0.00 0.24 0.00 70 1011.0
20260831103023 80 102 2.0 6.0 0.00 0.24 0.00 70 1011.0
20260831102924 80 102 3.0 6.0 0.00 0.24 0.00 70 1011.0
20260831102854 80 102 2.0 6.0 0.00 0.24 0.00 70 1011.0
20260831102716 80 101 2.0 6.0 0.00 0.24 0.00 70 1011.1
20260831102617 80 101 2.0 6.0 0.00 0.24 0.00 70 1011.1
20260831102526 80 101 1.0 6.0 0.00 0.24 0.00 70 1011.1
20260831102331 80 101 2.0 7.0 0.00 0.24 0.00 70 1011.1
20260831102233 80 101 2.0 7.0 0.00 0.24 0.00 70 1011.2
20260831102201 80 100 2.0 7.0 0.00 0.24 0.00 70 1011.2
20260831102042 80 100 1.0 7.0 0.00 0.24 0.00 70 1011.2
20260831101924 80 100 2.0 7.0 0.00 0.24 0.00 70 1011.2
20260831101833 80 100 2.0 7.0 0.00 0.24 0.00 70 1011.2
20260831101753 80 100 2.0 7.0 0.00 0.24 0.00 70 1011.3
20260831101626 80 99 2.0 7.0 0.00 0.24 0.00 70 1011.3
20260831101526 80 98 2.0 7.0 0.00 0.24 0.00 70 1011.3
20260831101428 80 100 2.0 6.0 0.00 0.24 0.00 70 1011.4
20260831101338 80 100 2.0 6.0 0.00 0.24 0.00 70 1011.4
20260831101221 80 101 2.0 6.0 0.00 0.24 0.00 70 1011.4
20260831101123 80 99 3.0 6.0 0.00 0.24 0.00 70 1011.3
20260831101031 80 98 2.0 6.0 0.00 0.24 0.00 70 1011.3
20260831100937 80 98 2.0 6.0 0.00 0.24 0.00 70 1011.3
20260831100819 80 98 3.0 6.0 0.00 0.24 0.00 70 1011.3
20260831100722 80 97 2.0 5.0 0.00 0.24 0.00 70 1011.4
20260831100624 80 96 2.0 5.0 0.00 0.24 0.00 70 1011.3
20260831100534 80 96 1.0 5.0 0.00 0.24 0.00 70 1011.3
20260831100420 80 94 2.0 5.0 0.00 0.24 0.00 70 1011.4
20260831100321 80 94 3.0 5.0 0.00 0.24 0.00 70 1011.4
20260831100231 80 94 1.0 5.0 0.00 0.24 0.00 70 1011.4
20260831100132 80 95 1.0 4.0 0.00 0.24 0.00 70 1011.3
20260831100053 80 95 2.0 4.0 0.00 0.24 0.00 70 1011.3
20260831095923 80 91 1.0 4.0 0.00 0.24 0.00 70 1011.3
20260831095828 80 91 1.0 4.0 0.00 0.24 0.00 70 1011.4
20260831095738 79 91 1.0 4.0 0.00 0.24 0.00 70 1011.4
20260831095621 79 91 0.0 3.0 0.00 0.24 0.00 70 1011.4
20260831095521 79 91 0.0 3.0 0.00 0.24 0.00 70 1011.5
20260831095432 79 91 0.0 3.0 0.00 0.24 0.00 70 1011.5
20260831095334 79 91 0.0 3.0 0.00 0.24 0.00 70 1011.4
20260831095220 79 91 1.0 3.0 0.00 0.24 0.00 70 1011.5
20260831095041 79 91 1.0 3.0 0.00 0.24 0.00 70 1011.5
20260831094923 79 91 1.0 3.0 0.00 0.24 0.00 70 1011.4
20260831094825 79 91 1.0 3.0 0.00 0.24 0.00 70 1011.4
20260831094755 79 90 0.0 3.0 0.00 0.24 0.00 70 1011.4
20260831094621 79 90 0.0 0.0 0.00 0.24 0.00 70 1011.5
20260831094519 79 90 0.0 0.0 0.00 0.24 0.00 70 1011.4
20260831094420 79 90 0.0 0.0 0.00 0.24 0.00 70 1011.4
20260831094330 79 90 0.0 0.0 0.00 0.24 0.00 70 1011.4
20260831094232 79 90 0.0 0.0 0.00 0.24 0.00 70 1011.5
20260831094121 79 90 0.0 0.0 0.00 0.24 0.00 70 1011.4
20260831094041 79 90 0.0 0.0 0.00 0.24 0.00 70 1011.6
20260831093934 79 90 0.0 0.0 0.00 0.24 0.00 70 1011.6
20260831093816 79 90 0.0 0.0 0.00 0.24 0.00 70 1011.6
20260831093719 79 90 0.0 0.0 0.00 0.24 0.00 70 1011.7
20260831093621 79 90 0.0 0.0 0.00 0.24 0.00 70 1011.6
20260831093532 79 90 0.0 0.0 0.00 0.24 0.00 70 1011.6
20260831093432 79 90 0.0 0.0 0.00 0.24 0.00 70 1011.7
20260831093318 79 90 0.0 1.0 0.00 0.24 0.00 69 1011.7
20260831093219 79 90 0.0 1.0 0.00 0.24 0.00 69 1011.6
20260831093129 79 90 0.0 1.0 0.00 0.24 0.00 70 1011.7
20260831093032 79 90 0.0 1.0 0.00 0.24 0.00 70 1011.7
20260831092933 79 90 0.0 2.0 0.00 0.24 0.00 70 1011.5
20260831092841 79 90 0.0 3.0 0.00 0.24 0.00 69 1011.6
20260831092726 79 90 0.0 3.0 0.00 0.24 0.00 69 1011.6
20260831092625 79 90 0.0 3.0 0.00 0.24 0.00 69 1011.5
20260831092537 79 90 0.0 3.0 0.00 0.24 0.00 69 1011.5
20260831092507 79 90 0.0 3.0 0.00 0.24 0.00 69 1011.6
20260831092405 79 90 0.0 3.0 0.00 0.24 0.00 69 1011.6
20260831092307 79 90 1.0 3.0 0.00 0.24 0.00 69 1011.6
20260831092133 79 90 1.0 3.0 0.00 0.24 0.00 69 1011.6
20260831092042 79 90 1.0 3.0 0.00 0.24 0.00 69 1011.6
20260831091928 79 90 0.0 3.0 0.00 0.24 0.00 69 1011.6
20260831091831 79 90 0.0 3.0 0.00 0.24 0.00 69 1011.6
20260831091731 79 90 1.0 3.0 0.00 0.24 0.00 69 1011.7
20260831091639 79 90 1.0 3.0 0.00 0.24 0.00 69 1011.6
20260831091540 79 90 0.0 4.0 0.00 0.24 0.00 69 1011.7
20260831091448 79 90 0.0 4.0 0.00 0.24 0.00 69 1011.7
20260831091328 79 90 0.0 4.0 0.00 0.24 0.00 69 1011.7
20260831091242 79 90 1.0 4.0 0.00 0.24 0.00 70 1011.7
20260831091144 79 89 0.0 4.0 0.00 0.24 0.00 70 1011.7
20260831091024 79 89 1.0 4.0 0.00 0.24 0.00 69 1011.6
20260831090935 79 89 1.0 4.0 0.00 0.24 0.00 69 1011.6
20260831090818 79 89 1.0 4.0 0.00 0.24 0.00 69 1011.6
20260831090720 79 89 1.0 4.0 0.00 0.24 0.00 69 1011.6
20260831090626 79 86 1.0 3.0 0.00 0.24 0.00 69 1011.7
20260831090536 79 86 1.0 3.0 0.00 0.24 0.00 69 1011.7
20260831090419 79 86 1.0 3.0 0.00 0.24 0.00 69 1011.6
20260831090322 79 85 0.0 3.0 0.00 0.24 0.00 69 1011.6
20260831090224 79 85 0.0 3.0 0.00 0.24 0.00 69 1011.6
20260831090134 79 85 0.0 3.0 0.00 0.24 0.00 69 1011.6
20260831090032 80 85 0.0 3.0 0.00 0.24 0.00 69 1011.6
20260831085950 80 85 1.0 3.0 0.00 0.24 0.00 69 1011.7
20260831085832 80 85 1.0 3.0 0.00 0.24 0.00 69 1011.7
20260831085733 80 85 1.0 3.0 0.00 0.24 0.00 69 1011.7
20260831085643 80 84 1.0 3.0 0.00 0.24 0.00 69 1011.7
20260831085525 80 82 1.0 3.0 0.00 0.24 0.00 69 1011.6
20260831085430 80 82 1.0 3.0 0.00 0.24 0.00 69 1011.7
20260831085331 80 80 1.0 3.0 0.00 0.24 0.00 69 1011.7
20260831085300 80 80 0.0 3.0 0.00 0.24 0.00 68 1011.6
20260831085122 80 80 0.0 3.0 0.00 0.24 0.00 68 1011.6
20260831085023 80 80 1.0 3.0 0.00 0.24 0.00 68 1011.5
20260831084954 80 80 1.0 3.0 0.00 0.24 0.00 68 1011.5
20260831084902 80 80 1.0 3.0 0.00 0.24 0.00 68 1011.5
20260831084741 80 80 1.0 3.0 0.00 0.24 0.00 68 1011.5
20260831084628 80 80 1.0 2.0 0.00 0.24 0.00 67 1011.6
20260831084537 80 80 0.0 2.0 0.00 0.24 0.00 67 1011.6
20260831084419 80 80 0.0 1.0 0.00 0.24 0.00 67 1011.6
20260831084319 80 80 0.0 1.0 0.00 0.24 0.00 67 1011.6
20260831084228 80 80 0.0 2.0 0.00 0.24 0.00 66 1011.5
20260831084132 80 80 0.0 2.0 0.00 0.24 0.00 66 1011.5
20260831084036 80 80 0.0 3.0 0.00 0.24 0.00 67 1011.6
20260831083923 80 80 0.0 3.0 0.00 0.24 0.00 67 1011.5
20260831083826 80 80 0.0 4.0 0.00 0.24 0.00 67 1011.6
20260831083728 80 80 0.0 4.0 0.00 0.24 0.00 68 1011.6
20260831083637 80 80 0.0 4.0 0.00 0.24 0.00 68 1011.6
20260831083515 80 80 1.0 4.0 0.00 0.24 0.00 68 1011.7
20260831083423 80 80 1.0 4.0 0.00 0.24 0.00 69 1011.7
20260831083323 80 80 1.0 4.0 0.00 0.24 0.00 69 1011.7
20260831083231 80 80 1.0 4.0 0.00 0.24 0.00 69 1011.7
20260831083116 80 81 2.0 4.0 0.00 0.24 0.00 69 1011.7
20260831083026 80 81 2.0 4.0 0.00 0.24 0.00 68 1011.7
20260831082926 80 82 1.0 4.0 0.00 0.24 0.00 68 1011.8
20260831082834 80 82 1.0 4.0 0.00 0.24 0.00 68 1011.8
20260831082733 80 89 2.0 4.0 0.00 0.24 0.00 67 1011.7
20260831082643 80 86 1.0 4.0 0.00 0.24 0.00 67 1011.7
20260831082528 80 84 2.0 3.0 0.00 0.24 0.00 67 1011.7
20260831082448 80 84 2.0 3.0 0.00 0.24 0.00 67 1011.7
20260831082356 80 84 1.0 3.0 0.00 0.24 0.00 67 1011.7
20260831082325 80 84 0.0 3.0 0.00 0.24 0.00 67 1011.7
20260831082153 80 84 0.0 0.0 0.00 0.24 0.00 66 1011.6
20260831082035 80 84 0.0 0.0 0.00 0.24 0.00 66 1011.6
20260831081918 80 84 0.0 0.0 0.00 0.24 0.00 66 1011.6
20260831081819 80 84 0.0 0.0 0.00 0.24 0.00 66 1011.7
20260831081734 80 84 0.0 0.0 0.00 0.24 0.00 66 1011.7
20260831081616 80 84 0.0 0.0 0.00 0.24 0.00 66 1011.6
20260831081517 80 84 0.0 4.0 0.00 0.24 0.00 66 1011.7
20260831081419 80 84 0.0 5.0 0.00 0.24 0.00 66 1011.6
20260831081328 80 84 0.0 5.0 0.00 0.24 0.00 66 1011.6
20260831081250 80 84 0.0 5.0 0.00 0.24 0.00 66 1011.7
20260831081138 80 84 0.0 5.0 0.00 0.24 0.00 67 1011.7
20260831081024 80 84 0.0 5.0 0.00 0.24 0.00 67 1011.7
20260831080927 80 84 0.0 5.0 0.00 0.24 0.00 67 1011.8
20260831080857 80 84 0.0 5.0 0.00 0.24 0.00 67 1011.8
20260831080717 80 84 2.0 5.0 0.00 0.24 0.00 67 1011.8
20260831080619 80 84 1.0 5.0 0.00 0.24 0.00 67 1011.8
20260831080520 80 96 1.0 5.0 0.00 0.24 0.00 67 1011.8
20260831080455 80 96 2.0 5.0 0.00 0.24 0.00 67 1011.8
20260831080315 80 98 2.0 4.0 0.00 0.24 0.00 67 1011.6
20260831080244 80 98 1.0 4.0 0.00 0.24 0.00 67 1011.6
20260831080124 80 98 2.0 4.0 0.00 0.24 0.00 67 1011.5
20260831080106 80 98 1.0 4.0 0.00 0.24 0.00 67 1011.5
20260831075915 80 98 1.0 4.0 0.00 0.24 0.00 66 1011.6
20260831075818 80 98 1.0 4.0 0.00 0.24 0.00 66 1011.7
20260831075733 80 98 1.0 4.0 0.00 0.24 0.00 65 1011.7
20260831075635 80 100 1.0 4.0 0.00 0.24 0.00 65 1011.6
20260831075603 80 100 1.0 4.0 0.00 0.24 0.00 65 1011.6
20260831075424 80 100 1.0 4.0 0.00 0.24 0.00 65 1011.6
20260831075327 80 100 2.0 4.0 0.00 0.24 0.00 65 1011.7
20260831075230 80 93 2.0 4.0 0.00 0.24 0.00 65 1011.7
20260831075142 80 77 2.0 4.0 0.00 0.24 0.00 66 1011.7
20260831075023 80 350 1.0 4.0 0.00 0.24 0.00 66 1011.8
20260831074924 80 350 1.0 4.0 0.00 0.24 0.00 66 1011.9
20260831074854 80 350 1.0 4.0 0.00 0.24 0.00 66 1011.9
20260831074716 80 350 1.0 4.0 0.00 0.24 0.00 67 1011.9
20260831074617 80 350 1.0 4.0 0.00 0.24 0.00 67 1011.9
20260831074532 80 350 1.0 6.0 0.00 0.24 0.00 67 1011.9
20260831074433 80 349 0.0 6.0 0.00 0.24 0.00 67 1011.8
20260831074315 79 349 1.0 6.0 0.00 0.24 0.00 67 1011.7
20260831074244 79 349 1.0 7.0 0.00 0.24 0.00 68 1011.6
20260831074145 79 348 1.0 8.0 0.00 0.24 0.00 68 1011.6
20260831074055 79 359 1.0 8.0 0.00 0.24 0.00 68 1011.6
20260831073916 79 359 1.0 8.0 0.00 0.24 0.00 68 1011.6
20260831073822 79 359 1.0 8.0 0.00 0.24 0.00 68 1011.6
20260831073733 79 359 1.0 8.0 0.00 0.24 0.00 68 1011.6
20260831073654 79 357 1.0 10.0 0.00 0.24 0.00 68 1011.6
20260831073540 79 356 2.0 10.0 0.00 0.24 0.00 68 1011.5
20260831073448 79 355 2.0 10.0 0.00 0.24 0.00 68 1011.6
20260831073345 79 349 2.0 10.0 0.00 0.24 0.00 68 1011.6
20260831073234 79 345 2.0 11.0 0.00 0.24 0.00 68 1011.6
20260831073117 79 339 3.0 11.0 0.00 0.24 0.00 68 1011.6
20260831073041 79 339 3.0 14.0 0.00 0.24 0.00 68 1011.6
20260831072930 79 335 3.0 15.0 0.00 0.24 0.00 68 1011.6
20260831072833 79 329 3.0 15.0 0.00 0.24 0.00 68 1011.6
20260831072731 79 332 4.0 15.0 0.00 0.24 0.00 68 1011.7
20260831072640 79 349 3.0 15.0 0.00 0.24 0.00 68 1011.7
20260831072520 79 313 5.0 16.0 0.00 0.24 0.00 68 1011.6
20260831072442 79 340 6.0 16.0 0.00 0.24 0.00 68 1011.7
20260831072331 79 360 6.0 16.0 0.00 0.24 0.00 68 1011.7
20260831072259 79 4 7.0 16.0 0.00 0.24 0.00 68 1011.7
20260831072207 79 12 7.0 16.0 0.00 0.24 0.00 68 1011.6
20260831072128 79 359 7.0 16.0 0.00 0.24 0.00 68 1011.7
20260831071944 79 14 7.0 16.0 0.00 0.24 0.00 68 1011.7
20260831071824 79 350 7.0 17.0 0.00 0.24 0.00 68 1011.7
20260831071733 79 311 8.0 17.0 0.00 0.24 0.00 68 1011.7
20260831071635 79 322 7.0 17.0 0.00 0.24 0.00 68 1011.7
20260831071544 79 333 7.0 17.0 0.00 0.24 0.00 68 1011.8
20260831071444 79 314 7.0 17.0 0.00 0.24 0.00 68 1011.7
20260831071337 79 311 6.0 17.0 0.00 0.24 0.00 68 1011.7
20260831071219 79 323 7.0 17.0 0.00 0.24 0.00 68 1011.7
20260831071122 79 307 8.0 17.0 0.00 0.24 0.00 68 1011.6
20260831071024 79 359 11.0 17.0 0.00 0.24 0.00 68 1011.6
20260831070935 79 349 11.0 17.0 0.00 0.24 0.00 68 1011.6
20260831070822 79 346 10.0 17.0 0.00 0.24 0.00 68 1011.7
20260831070725 79 329 10.0 17.0 0.00 0.24 0.00 68 1011.7
20260831070625 79 359 7.0 17.0 0.00 0.24 0.00 68 1011.6
20260831070535 79 354 7.0 17.0 0.00 0.24 0.00 68 1011.6
20260831070417 79 320 8.0 17.0 0.00 0.24 0.00 68 1011.7
20260831070320 79 311 9.0 16.0 0.00 0.24 0.00 68 1011.8
20260831070234 79 335 9.0 16.0 0.00 0.24 0.00 68 1011.8
20260831070155 79 310 10.0 15.0 0.00 0.24 0.00 68 1011.8
20260831070055 79 350 8.0 16.0 0.00 0.24 0.00 68 1011.8
20260831065920 79 335 7.0 16.0 0.00 0.24 0.00 68 1011.8
20260831065831 79 13 7.0 18.0 0.00 0.24 0.00 68 1011.8
20260831065732 80 352 6.0 18.0 0.00 0.24 0.00 69 1011.9
20260831065633 80 359 4.0 18.0 0.00 0.24 0.00 68 1012.0
20260831065520 80 360 6.0 18.0 0.00 0.24 0.00 68 1011.9
20260831065430 80 354 8.0 18.0 0.00 0.24 0.00 67 1011.9
20260831065331 80 338 7.0 18.0 0.00 0.24 0.00 67 1011.7
20260831065239 80 345 8.0 18.0 0.00 0.24 0.00 67 1011.8
20260831065122 80 325 9.0 18.0 0.00 0.24 0.00 67 1011.6
20260831065024 80 340 8.0 18.0 0.00 0.24 0.00 66 1011.6
20260831064928 80 341 8.0 15.0 0.00 0.24 0.00 66 1011.4
20260831064854 80 328 8.0 17.0 0.00 0.24 0.00 66 1011.4
20260831064734 80 317 7.0 18.0 0.00 0.24 0.00 66 1011.4
20260831064615 80 356 7.0 18.0 0.00 0.24 0.00 66 1011.4
20260831064525 80 317 7.0 18.0 0.00 0.24 0.00 66 1011.4
20260831064427 80 335 9.0 18.0 0.00 0.24 0.00 65 1011.4
20260831064336 80 360 10.0 18.0 0.00 0.24 0.00 65 1011.4
20260831064222 80 333 10.0 18.0 0.00 0.24 0.00 65 1011.5
20260831064125 80 321 10.0 18.0 0.00 0.24 0.00 65 1011.5
20260831064025 80 347 10.0 18.0 0.00 0.24 0.00 65 1011.5
20260831063936 80 350 9.0 18.0 0.00 0.24 0.00 65 1011.5
20260831063903 80 328 10.0 18.0 0.00 0.24 0.24 65 1011.4
20260831063724 80 304 11.0 18.0 0.00 0.24 0.24 65 1011.3
20260831063629 80 332 11.0 18.0 0.00 0.24 0.24 66 1011.3
20260831063531 80 337 9.0 18.0 0.00 0.24 0.24 66 1011.4
20260831063440 80 321 9.0 17.0 0.00 0.24 0.24 66 1011.3
20260831063322 80 309 10.0 17.0 0.00 0.24 0.24 67 1011.3
20260831063223 80 319 10.0 17.0 0.00 0.24 0.24 68 1011.3
20260831063133 80 307 9.0 17.0 0.00 0.24 0.24 68 1011.3
20260831063019 80 313 8.0 17.0 0.00 0.24 0.24 68 1011.4
20260831062922 80 311 9.0 17.0 0.00 0.24 0.24 68 1011.4
20260831062824 80 309 9.0 17.0 0.00 0.24 0.24 68 1011.4
20260831062755 80 322 7.0 17.0 0.00 0.24 0.24 69 1011.4
20260831062616 80 316 6.0 16.0 0.00 0.24 0.24 69 1011.3
20260831062518 80 297 6.0 17.0 0.00 0.24 0.24 69 1011.3
20260831062446 80 311 6.0 17.0 0.00 0.24 0.24 70 1011.3
20260831062331 80 349 8.0 17.0 0.00 0.24 0.24 70 1011.3
20260831062219 80 330 9.0 17.0 0.00 0.24 0.24 70 1011.3
20260831062148 80 321 9.0 17.0 0.00 0.24 0.24 70 1011.3
20260831062028 80 342 8.0 19.0 0.00 0.24 0.24 70 1011.3
20260831061834 80 318 9.0 19.0 0.00 0.24 0.24 70 1011.3
20260831061716 80 326 10.0 19.0 0.00 0.24 0.24 70 1011.3
20260831061621 80 332 9.0 19.0 0.00 0.24 0.24 70 1011.4
20260831061550 80 345 7.0 19.0 0.00 0.24 0.24 69 1011.4
20260831061433 81 320 8.0 19.0 0.00 0.24 0.24 69 1011.4
20260831061334 81 319 10.0 19.0 0.00 0.24 0.24 68 1011.5
20260831061242 81 342 11.0 24.0 0.00 0.24 0.24 68 1011.5
20260831061123 81 274 7.0 24.0 0.00 0.24 0.24 68 1011.5
20260831061031 81 286 6.0 24.0 0.00 0.24 0.24 67 1011.3
20260831060918 82 288 7.0 24.0 0.00 0.24 0.24 66 1011.3
20260831060821 82 317 9.0 24.0 0.01 0.24 0.24 66 1011.2
20260831060750 82 288 11.0 24.0 0.02 0.24 0.24 66 1011.2
20260831060659 82 295 11.0 24.0 0.02 0.24 0.24 65 1011.2
20260831060527 82 319 11.0 24.0 0.04 0.24 0.24 65 1011.2
20260831060457 82 306 11.0 24.0 0.04 0.24 0.24 65 1011.2
20260831060317 82 330 8.0 17.0 0.06 0.24 0.24 64 1011.3
20260831060223 82 359 5.0 14.0 0.07 0.24 0.24 65 1011.4
20260831060154 82 360 6.0 14.0 0.07 0.24 0.24 65 1011.4
20260831060113 82 336 6.0 14.0 0.09 0.24 0.24 65 1011.4
20260831055924 82 337 5.0 13.0 0.11 0.24 0.24 66 1011.4
20260831055844 82 270 3.0 13.0 0.12 0.24 0.24 67 1011.3
20260831055734 82 264 1.0 7.0 0.12 0.24 0.24 68 1011.3
20260831055616 82 1 1.0 5.0 0.16 0.24 0.24 69 1010.7
20260831055523 82 1 1.0 5.0 0.18 0.24 0.24 69 1010.4
20260831055424 82 1 1.0 5.0 0.19 0.24 0.24 69 1010.3
20260831055355 82 13 0.0 5.0 0.19 0.24 0.24 69 1010.3
20260831055241 82 17 0.0 5.0 0.20 0.24 0.24 70 1010.2
20260831055122 81 18 0.0 5.0 0.20 0.24 0.24 70 1010.0
20260831055044 81 18 0.0 5.0 0.21 0.24 0.24 70 1009.9
20260831054932 81 18 2.0 5.0 0.21 0.24 0.24 70 1009.9
20260831054817 81 18 3.0 5.0 0.22 0.24 0.24 69 1009.8
20260831054718 81 60 2.0 5.0 0.23 0.24 0.24 69 1009.9
20260831054648 80 75 1.0 4.0 0.24 0.24 0.24 70 1009.9
20260831054529 80 76 0.0 4.0 0.24 0.24 0.24 73 1010.0
20260831054430 80 76 0.0 4.0 0.24 0.24 0.24 74 1010.1
20260831054341 80 76 1.0 4.0 0.24 0.24 0.24 74 1010.1
20260831054224 80 76 1.0 4.0 0.24 0.24 0.24 75 1010.3
20260831054129 80 77 1.0 5.0 0.24 0.24 0.24 75 1010.3
20260831054039 80 77 2.0 5.0 0.24 0.24 0.24 75 1010.3
20260831053921 79 77 2.0 5.0 0.24 0.24 0.24 75 1010.5
20260831053824 79 81 1.0 5.0 0.24 0.24 0.24 75 1010.6
20260831053724 79 76 1.0 5.0 0.24 0.24 0.24 76 1010.6
20260831053632 79 75 2.0 5.0 0.24 0.24 0.24 76 1010.6
20260831053538 79 75 2.0 5.0 0.24 0.24 0.24 76 1010.8
20260831053421 79 70 3.0 5.0 0.24 0.24 0.24 76 1010.8
20260831053330 79 68 3.0 5.0 0.24 0.24 0.24 75 1010.8
20260831053234 79 75 2.0 5.0 0.24 0.24 0.24 75 1010.8
20260831053115 79 117 2.0 5.0 0.24 0.24 0.24 74 1011.0
20260831053016 79 117 2.0 5.0 0.24 0.24 0.24 74 1011.2
20260831052952 79 117 2.0 6.0 0.24 0.24 0.24 74 1011.2
20260831052921 79 117 3.0 6.0 0.24 0.24 0.24 73 1011.3
20260831052640 80 122 2.0 6.0 0.24 0.24 0.24 73 1011.5
20260831052523 80 126 1.0 7.0 0.24 0.24 0.24 72 1011.6
20260831052444 80 126 2.0 7.0 0.24 0.24 0.24 72 1011.8
20260831052334 80 126 3.0 7.0 0.24 0.24 0.24 72 1011.8
20260831052306 80 127 3.0 7.0 0.24 0.24 0.24 71 1011.8
20260831052126 80 129 3.0 7.0 0.24 0.24 0.24 72 1012.0
20260831052027 79 131 2.0 7.0 0.24 0.24 0.24 72 1012.0
20260831051957 79 131 1.0 7.0 0.24 0.24 0.24 72 1012.0
20260831051920 79 131 2.0 8.0 0.24 0.24 0.24 72 1012.2
20260831051635 79 139 2.0 9.0 0.24 0.24 0.24 71 1012.3
20260831051604 79 144 3.0 15.0 0.24 0.24 0.24 71 1012.3
20260831051424 79 143 4.0 15.0 0.24 0.24 0.24 72 1012.4
20260831051316 79 142 3.0 15.0 0.24 0.24 0.24 72 1012.4
20260831051218 79 142 3.0 16.0 0.24 0.24 0.24 71 1012.4
20260831051127 79 133 4.0 18.0 0.24 0.24 0.24 71 1012.4
20260831051029 79 131 5.0 18.0 0.24 0.24 0.24 71 1012.4
20260831050931 79 193 5.0 18.0 0.24 0.24 0.24 71 1012.5
20260831050841 79 153 6.0 18.0 0.23 0.23 0.23 70 1012.5
20260831050727 79 162 8.0 18.0 0.22 0.22 0.22 70 1012.4
20260831050627 79 198 7.0 18.0 0.21 0.21 0.21 70 1012.4
20260831050538 79 188 5.0 18.0 0.20 0.20 0.20 70 1012.4
20260831050420 80 162 9.0 18.0 0.19 0.19 0.19 70 1012.5
20260831050323 80 160 10.0 18.0 0.18 0.18 0.18 70 1012.4
20260831050225 80 204 11.0 18.0 0.17 0.17 0.17 70 1012.5
20260831050155 80 194 10.0 18.0 0.16 0.16 0.16 70 1012.5
20260831050036 80 179 7.0 18.0 0.14 0.14 0.14 70 1012.4
20260831045946 80 173 9.0 18.0 0.13 0.13 0.13 69 1012.7
20260831045834 80 169 11.0 18.0 0.12 0.12 0.12 69 1012.7
20260831045755 81 154 11.0 18.0 0.10 0.10 0.10 70 1012.5
20260831045617 81 132 10.0 18.0 0.08 0.08 0.08 70 1012.4
20260831045545 81 131 8.0 17.0 0.06 0.06 0.06 69 1012.6
20260831045455 82 182 9.0 17.0 0.05 0.05 0.05 68 1012.6
20260831045333 82 184 11.0 18.0 0.04 0.04 0.04 68 1012.4
20260831045219 82 113 10.0 18.0 0.04 0.04 0.04 67 1012.4
20260831045129 82 172 8.0 18.0 0.04 0.04 0.04 66 1012.2
20260831045033 83 141 7.0 18.0 0.03 0.03 0.03 65 1012.2
20260831044932 83 160 8.0 18.0 0.03 0.03 0.03 63 1012.4
20260831044841 84 140 10.0 18.0 0.02 0.02 0.02 62 1012.3
20260831044723 84 154 9.0 18.0 0.01 0.01 0.01 61 1012.4
20260831044629 84 150 10.0 18.0 0.00 0.00 0.00 59 1012.4
20260831044558 84 105 11.0 18.0 0.00 0.00 0.00 57 1012.4
20260831044445 84 144 9.0 18.0 0.00 0.00 0.00 56 1012.2
20260831044326 84 138 7.0 18.0 0.00 0.00 0.00 56 1012.0
20260831044256 84 148 8.0 24.0 0.00 0.00 0.00 55 1012.0
20260831044134 85 152 9.0 24.0 0.00 0.00 0.00 54 1011.9
20260831044016 85 194 8.0 24.0 0.00 0.00 0.00 54 1011.7
20260831043945 85 152 9.0 24.0 0.00 0.00 0.00 55 1011.7
20260831043828 85 146 11.0 24.0 0.00 0.00 0.00 56 1011.5
20260831043739 85 145 10.0 24.0 0.00 0.00 0.00 57 1011.5
20260831043622 86 161 10.0 24.0 0.00 0.00 0.00 57 1011.4
20260831043524 86 186 11.0 24.0 0.00 0.00 0.00 56 1011.1
20260831043425 87 203 11.0 24.0 0.00 0.00 0.00 56 1011.0
20260831043335 87 235 10.0 21.0 0.00 0.00 0.00 56 1011.0
20260831043242 87 360 10.0 21.0 0.00 0.00 0.00 55 1010.9
20260831043122 88 138 10.0 28.0 0.00 0.00 0.00 54 1010.8
20260831043029 88 360 10.0 28.0 0.00 0.00 0.00 54 1010.8
20260831042958 89 360 10.0 28.0 0.00 0.00 0.00 53 1010.8
20260831042820 89 360 11.0 28.0 0.00 0.00 0.00 52 1010.8
20260831042722 90 360 10.0 28.0 0.00 0.00 0.00 51 1010.7
20260831042651 90 360 11.0 28.0 0.00 0.00 0.00 50 1010.6
20260831042529 91 360 12.0 28.0 0.00 0.00 0.00 50 1010.4
20260831042419 91 127 13.0 28.0 0.00 0.00 0.00 48 1010.2
20260831042320 91 360 12.0 28.0 0.00 0.00 0.00 48 1010.2
20260831042229 92 360 10.0 24.0 0.00 0.00 0.00 47 1010.3
20260831042130 92 360 8.0 19.0 0.00 0.00 0.00 47 1010.0
20260831042039 92 360 9.0 19.0 0.00 0.00 0.00 47 1010.0
20260831041920 92 170 10.0 19.0 0.00 0.00 0.00 47 1010.0
20260831041821 92 132 10.0 22.0 0.00 0.00 0.00 46 1010.2
20260831041756 92 134 10.0 22.0 0.00 0.00 0.00 46 1010.2
20260831041714 93 137 11.0 23.0 0.00 0.00 0.00 44 1009.9
20260831041533 93 110 10.0 23.0 0.00 0.00 0.00 45 1009.9
20260831041434 93 161 8.0 23.0 0.00 0.00 0.00 45 1010.0
20260831041317 93 138 8.0 23.0 0.00 0.00 0.00 45 1009.9
20260831041218 93 113 10.0 23.0 0.00 0.00 0.00 44 1009.8
20260831041127 93 139 12.0 23.0 0.00 0.00 0.00 44 1010.1
20260831041034 94 360 11.0 23.0 0.00 0.00 0.00 44 1010.1
20260831041003 94 122 12.0 23.0 0.00 0.00 0.00 43 1009.8
20260831040823 95 360 14.0 23.0 0.00 0.00 0.00 42 1010.1
20260831040743 95 360 12.0 23.0 0.00 0.00 0.00 42 1010.1
20260831040633 95 360 10.0 22.0 0.00 0.00 0.00 41 1010.1
20260831040534 96 360 10.0 22.0 0.00 0.00 0.00 41 1009.9
20260831040419 96 360 11.0 22.0 0.00 0.00 0.00 40 1010.0
20260831040327 97 360 11.0 22.0 0.00 0.00 0.00 39 1009.9
20260831040229 97 360 9.0 22.0 0.00 0.00 0.00 39 1009.9
20260831040131 97 360 5.0 15.0 0.00 0.00 0.00 38 1009.8
20260831040051 98 360 5.0 15.0 0.00 0.00 0.00 38 1009.8
20260831035923 98 360 8.0 15.0 0.00 0.00 0.00 38 1009.6
20260831035829 98 360 8.0 15.0 0.00 0.00 0.00 37 1009.5
20260831035739 98 360 8.0 15.0 0.00 0.00 0.00 37 1009.5
20260831035622 98 360 6.0 14.0 0.00 0.00 0.00 37 1009.4
20260831035523 98 360 6.0 13.0 0.00 0.00 0.00 37 1009.4
20260831035430 99 360 6.0 13.0 0.00 0.00 0.00 36 1009.2
20260831035328 99 360 5.0 13.0 0.00 0.00 0.00 36 1009.1
20260831035258 99 360 5.0 13.0 0.00 0.00 0.00 36 1009.1
20260831035141 99 360 6.0 13.0 0.00 0.00 0.00 35 1009.0
20260831035022 99 360 4.0 13.0 0.00 0.00 0.00 35 1009.0
20260831034930 100 360 4.0 13.0 0.00 0.00 0.00 35 1009.0
20260831034834 100 360 4.0 13.0 0.00 0.00 0.00 34 1009.0
20260831034717 100 360 5.0 13.0 0.00 0.00 0.00 34 1009.0
20260831034619 100 360 6.0 13.0 0.00 0.00 0.00 33 1008.9
20260831034548 100 360 4.0 13.0 0.00 0.00 0.00 33 1008.8
20260831034433 100 360 2.0 9.0 0.00 0.00 0.00 33 1008.8
20260831034341 100 360 1.0 3.0 0.00 0.00 0.00 33 1008.7
20260831034223 100 360 1.0 3.0 0.00 0.00 0.00 32 1008.7
20260831034151 100 360 1.0 2.0 0.00 0.00 0.00 32 1008.6
20260831034030 100 360 0.0 2.0 0.00 0.00 0.00 32 1008.6
20260831033940 100 360 0.0 2.0 0.00 0.00 0.00 32 1008.6
20260831033826 100 360 0.0 2.0 0.00 0.00 0.00 32 1008.6
20260831033728 100 360 0.0 2.0 0.00 0.00 0.00 32 1008.6
20260831033630 100 360 0.0 2.0 0.00 0.00 0.00 32 1008.6
20260831033516 100 360 1.0 2.0 0.00 0.00 0.00 32 1008.6
20260831033418 100 360 1.0 2.0 0.00 0.00 0.00 32 1008.6
20260831033347 100 360 0.0 2.0 0.00 0.00 0.00 32 1008.4
20260831033228 100 360 0.0 1.0 0.00 0.00 0.00 32 1008.3
20260831033134 100 360 0.0 3.0 0.00 0.00 0.00 32 1008.3
20260831033044 100 360 0.0 3.0 0.00 0.00 0.00 32 1008.3
20260831032923 100 360 0.0 3.0 0.00 0.00 0.00 32 1008.3
20260831032834 100 360 0.0 3.0 0.00 0.00 0.00 32 1008.3
20260831032733 100 360 0.0 3.0 0.00 0.00 0.00 32 1008.3
20260831032635 100 360 0.0 3.0 0.00 0.00 0.00 32 1008.4
20260831032521 100 360 0.0 3.0 0.00 0.00 0.00 32 1008.5
20260831032428 101 360 1.0 3.0 0.00 0.00 0.00 32 1008.4
20260831032328 101 360 1.0 3.0 0.00 0.00 0.00 32 1008.4
20260831032238 101 360 0.0 3.0 0.00 0.00 0.00 32 1008.4
20260831032121 101 360 1.0 3.0 0.00 0.00 0.00 32 1008.4
20260831032024 101 360 1.0 3.0 0.00 0.00 0.00 32 1008.4
20260831031927 101 360 0.0 3.0 0.00 0.00 0.00 32 1008.4
20260831031840 101 360 0.0 4.0 0.00 0.00 0.00 32 1008.3
20260831031721 101 203 0.0 4.0 0.00 0.00 0.00 31 1008.3
20260831031651 101 360 0.0 4.0 0.00 0.00 0.00 31 1008.3
20260831031441 101 360 1.0 4.0 0.00 0.00 0.00 31 1008.5
20260831031343 101 203 1.0 4.0 0.00 0.00 0.00 31 1008.5
20260831031223 101 203 1.0 4.0 0.00 0.00 0.00 31 1008.5
20260831031137 101 203 1.0 4.0 0.00 0.00 0.00 31 1008.5
20260831031019 101 203 2.0 5.0 0.00 0.00 0.00 31 1008.5
20260831030950 101 203 2.0 5.0 0.00 0.00 0.00 31 1008.4
20260831030829 101 203 2.0 5.0 0.00 0.00 0.00 31 1008.4
20260831030738 101 203 2.0 5.0 0.00 0.00 0.00 31 1008.4
20260831030641 101 203 1.0 5.0 0.00 0.00 0.00 31 1008.4
20260831030522 101 203 1.0 5.0 0.00 0.00 0.00 31 1008.4
20260831030436 101 203 1.0 5.0 0.00 0.00 0.00 31 1008.4
20260831030337 101 203 2.0 5.0 0.00 0.00 0.00 31 1008.4
20260831030218 101 203 2.0 5.0 0.00 0.00 0.00 31 1008.4
20260831030127 101 203 2.0 4.0 0.00 0.00 0.00 31 1008.4
20260831030108 101 203 2.0 4.0 0.00 0.00 0.00 31 1008.4
20260831025918 101 203 1.0 4.0 0.00 0.00 0.00 31 1008.5
20260831025818 101 203 0.0 4.0 0.00 0.00 0.00 31 1008.4
20260831025733 101 203 0.0 4.0 0.00 0.00 0.00 31 1008.4
20260831025633 101 203 1.0 4.0 0.00 0.00 0.00 31 1008.4
20260831025535 101 203 1.0 4.0 0.00 0.00 0.00 31 1008.3
20260831025445 101 203 1.0 4.0 0.00 0.00 0.00 31 1008.2
20260831025325 101 203 2.0 4.0 0.00 0.00 0.00 31 1008.2
20260831025255 101 203 1.0 4.0 0.00 0.00 0.00 31 1008.2
20260831025115 101 203 0.0 3.0 0.00 0.00 0.00 31 1008.2
20260831025022 101 203 0.0 3.0 0.00 0.00 0.00 31 1008.1
20260831024934 101 203 1.0 3.0 0.00 0.00 0.00 31 1008.1
20260831024835 101 203 1.0 4.0 0.00 0.00 0.00 31 1008.0
20260831024737 101 203 1.0 4.0 0.00 0.00 0.00 31 1008.1
20260831024626 102 203 1.0 4.0 0.00 0.00 0.00 30 1008.1
20260831024527 102 203 1.0 4.0 0.00 0.00 0.00 30 1008.1
20260831024434 102 203 0.0 4.0 0.00 0.00 0.00 30 1008.1
20260831024315 102 203 0.0 4.0 0.00 0.00 0.00 30 1008.1
20260831024225 102 203 1.0 4.0 0.00 0.00 0.00 30 1008.1
20260831024126 102 203 1.0 4.0 0.00 0.00 0.00 30 1008.1
20260831024057 102 203 1.0 4.0 0.00 0.00 0.00 30 1008.1
20260831023918 102 203 1.0 4.0 0.00 0.00 0.00 30 1008.1
20260831023825 102 203 2.0 5.0 0.00 0.00 0.00 30 1008.0
20260831023727 102 203 2.0 5.0 0.00 0.00 0.00 30 1008.0
20260831023656 102 203 1.0 5.0 0.00 0.00 0.00 30 1008.0
20260831023603 102 203 1.0 5.0 0.00 0.00 0.00 30 1008.0
20260831023442 102 203 1.0 5.0 0.00 0.00 0.00 30 1007.9
20260831023331 102 203 1.0 5.0 0.00 0.00 0.00 30 1007.9
20260831023232 102 203 2.0 5.0 0.00 0.00 0.00 30 1007.9
20260831023119 102 203 2.0 5.0 0.00 0.00 0.00 30 1007.8
20260831023020 102 203 3.0 5.0 0.00 0.00 0.00 30 1007.7
20260831022950 102 203 1.0 5.0 0.00 0.00 0.00 30 1007.7
20260831022837 102 203 1.0 6.0 0.00 0.00 0.00 30 1007.7
20260831022719 102 203 2.0 6.0 0.00 0.00 0.00 30 1007.7
20260831022639 102 203 2.0 6.0 0.00 0.00 0.00 30 1007.7
20260831022547 102 203 1.0 6.0 0.00 0.00 0.00 30 1007.7
20260831022430 102 203 0.0 6.0 0.00 0.00 0.00 30 1007.7
20260831022342 102 203 1.0 6.0 0.00 0.00 0.00 30 1007.8
20260831022223 102 203 1.0 6.0 0.00 0.00 0.00 30 1007.7
20260831022131 102 203 2.0 6.0 0.00 0.00 0.00 30 1007.7
20260831022030 102 203 1.0 6.0 0.00 0.00 0.00 30 1007.7
20260831021941 102 203 2.0 6.0 0.00 0.00 0.00 30 1007.7
20260831021821 102 203 2.0 6.0 0.00 0.00 0.00 30 1007.6
20260831021722 102 203 2.0 6.0 0.00 0.00 0.00 30 1007.6
20260831021635 102 203 2.0 6.0 0.00 0.00 0.00 30 1007.6
20260831021538 102 203 1.0 6.0 0.00 0.00 0.00 29 1007.6
20260831021318 103 203 3.0 6.0 0.00 0.00 0.00 29 1007.6
20260831021221 103 203 3.0 6.0 0.00 0.00 0.00 29 1007.6
20260831021121 103 202 2.0 6.0 0.00 0.00 0.00 30 1007.6
20260831021051 103 201 2.0 6.0 0.00 0.00 0.00 30 1007.5
20260831020945 102 201 2.0 6.0 0.00 0.00 0.00 30 1007.6
20260831020845 102 201 2.0 6.0 0.00 0.00 0.00 30 1007.5
20260831020734 102 201 2.0 6.0 0.00 0.00 0.00 30 1007.5
20260831020616 102 199 1.0 6.0 0.00 0.00 0.00 30 1007.5
20260831020526 102 360 1.0 6.0 0.00 0.00 0.00 30 1007.4
20260831020428 102 199 0.0 6.0 0.00 0.00 0.00 30 1007.4
20260831020338 102 199 0.0 6.0 0.00 0.00 0.00 30 1007.4
20260831020225 102 199 1.0 6.0 0.00 0.00 0.00 30 1007.4
20260831020147 102 199 2.0 6.0 0.00 0.00 0.00 30 1007.3
20260831020048 102 199 1.0 6.0 0.00 0.00 0.00 30 1007.3
20260831015917 102 199 1.0 7.0 0.00 0.00 0.00 30 1007.3
20260831015827 102 199 2.0 7.0 0.00 0.00 0.00 30 1007.2
20260831015729 102 199 2.0 7.0 0.00 0.00 0.00 30 1007.2
20260831015700 102 198 3.0 7.0 0.00 0.00 0.00 30 1007.2
20260831015523 103 198 2.0 7.0 0.00 0.00 0.00 30 1007.1
20260831015424 103 198 2.0 7.0 0.00 0.00 0.00 30 1007.1
20260831015355 103 198 3.0 7.0 0.00 0.00 0.00 30 1007.1
20260831015234 103 198 3.0 7.0 0.00 0.00 0.00 30 1007.1
20260831015116 103 194 2.0 7.0 0.00 0.00 0.00 30 1007.1
20260831015025 103 194 2.0 7.0 0.00 0.00 0.00 30 1007.0
20260831014933 103 194 2.0 7.0 0.00 0.00 0.00 30 1007.0
20260831014901 103 193 2.0 7.0 0.00 0.00 0.00 30 1006.9
20260831014720 103 193 2.0 7.0 0.00 0.00 0.00 30 1007.0
20260831014621 103 193 2.0 7.0 0.00 0.00 0.00 30 1007.0
20260831014521 103 193 3.0 7.0 0.00 0.00 0.00 30 1006.9
20260831014451 103 193 2.0 7.0 0.00 0.00 0.00 30 1006.9
20260831014217 103 190 0.0 7.0 0.00 0.00 0.00 30 1006.9
20260831014119 103 190 0.0 7.0 0.00 0.00 0.00 30 1006.9
20260831014027 103 190 1.0 7.0 0.00 0.00 0.00 30 1006.9
20260831013929 103 190 2.0 7.0 0.00 0.00 0.00 30 1006.9
20260831013838 103 190 2.0 7.0 0.00 0.00 0.00 30 1006.9
20260831013739 103 190 1.0 7.0 0.00 0.00 0.00 30 1006.9
20260831013626 103 190 1.0 7.0 0.00 0.00 0.00 30 1006.9
20260831013549 103 190 2.0 7.0 0.00 0.00 0.00 30 1006.9
20260831013441 103 190 2.0 7.0 0.00 0.00 0.00 30 1006.9
20260831013324 103 187 3.0 7.0 0.00 0.00 0.00 30 1006.9
20260831013226 104 182 3.0 7.0 0.00 0.00 0.00 30 1006.9
20260831013129 104 180 2.0 7.0 0.00 0.00 0.00 30 1006.9
20260831013036 104 180 2.0 7.0 0.00 0.00 0.00 30 1006.9
20260831012917 104 179 3.0 7.0 0.00 0.00 0.00 30 1007.0
20260831012826 104 178 3.0 7.0 0.00 0.00 0.00 30 1006.9
20260831012735 104 172 2.0 7.0 0.00 0.00 0.00 30 1006.9
20260831012635 104 269 2.0 7.0 0.00 0.00 0.00 30 1006.9
20260831012544 104 269 3.0 7.0 0.00 0.00 0.00 30 1006.8
20260831012426 104 269 3.0 7.0 0.00 0.00 0.00 30 1006.9
20260831012329 104 269 3.0 7.0 0.00 0.00 0.00 30 1006.9
20260831012215 104 275 2.0 5.0 0.00 0.00 0.00 30 1006.9
20260831012125 104 275 2.0 6.0 0.00 0.00 0.00 30 1007.0
20260831012027 104 275 1.0 7.0 0.00 0.00 0.00 30 1006.9
20260831011957 104 275 2.0 7.0 0.00 0.00 0.00 30 1006.9
20260831011817 104 275 2.0 7.0 0.00 0.00 0.00 30 1006.9
20260831011740 105 275 2.0 7.0 0.00 0.00 0.00 30 1007.0
20260831011627 105 276 2.0 7.0 0.00 0.00 0.00 30 1007.0
20260831011534 105 275 2.0 7.0 0.00 0.00 0.00 30 1007.0
20260831011503 105 275 4.0 7.0 0.00 0.00 0.00 30 1007.1
20260831011229 105 274 3.0 7.0 0.00 0.00 0.00 30 1007.0
20260831011130 105 271 1.0 5.0 0.00 0.00 0.00 30 1007.1
20260831011100 105 103 1.0 5.0 0.00 0.00 0.00 30 1007.1
20260831010921 105 103 1.0 5.0 0.00 0.00 0.00 30 1007.0
20260831010828 104 105 1.0 5.0 0.00 0.00 0.00 30 1007.0
20260831010730 104 250 1.0 5.0 0.00 0.00 0.00 30 1007.1
20260831010640 104 246 1.0 5.0 0.00 0.00 0.00 30 1007.1
20260831010522 104 246 2.0 5.0 0.00 0.00 0.00 30 1007.1
20260831010424 104 176 2.0 5.0 0.00 0.00 0.00 30 1007.1
20260831010355 104 176 2.0 5.0 0.00 0.00 0.00 30 1007.1
20260831010255 105 175 3.0 8.0 0.00 0.00 0.00 30 1007.1
20260831010119 105 257 3.0 8.0 0.00 0.00 0.00 30 1007.1
20260831010040 105 257 2.0 8.0 0.00 0.00 0.00 30 1007.1
20260831005930 105 257 1.0 8.0 0.00 0.00 0.00 30 1007.1
20260831005818 105 253 2.0 8.0 0.00 0.00 0.00 30 1007.1
20260831005720 105 253 2.0 8.0 0.00 0.00 0.00 30 1007.2
20260831005623 105 252 3.0 8.0 0.00 0.00 0.00 30 1007.2
20260831005552 105 252 4.0 8.0 0.00 0.00 0.00 30 1007.2
20260831005417 105 252 3.0 7.0 0.00 0.00 0.00 30 1007.3
20260831005318 105 252 3.0 7.0 0.00 0.00 0.00 30 1007.2
20260831005227 105 252 3.0 7.0 0.00 0.00 0.00 30 1007.3
20260831005128 105 251 1.0 7.0 0.00 0.00 0.00 30 1007.3
20260831005059 105 251 1.0 8.0 0.00 0.00 0.00 30 1007.3
20260831004939 105 251 3.0 8.0 0.00 0.00 0.00 30 1007.3
20260831004846 105 251 4.0 8.0 0.00 0.00 0.00 30 1007.3
20260831004800 105 267 4.0 8.0 0.00 0.00 0.00 30 1007.3
20260831004622 105 268 3.0 8.0 0.00 0.00 0.00 30 1007.4
20260831004524 105 269 3.0 8.0 0.00 0.00 0.00 29 1007.3
20260831004425 105 269 3.0 8.0 0.00 0.00 0.00 29 1007.3
20260831004336 106 269 4.0 8.0 0.00 0.00 0.00 29 1007.3
20260831004219 106 270 3.0 8.0 0.00 0.00 0.00 29 1007.3
20260831004125 105 270 1.0 6.0 0.00 0.00 0.00 30 1007.3
20260831004027 105 270 2.0 6.0 0.00 0.00 0.00 30 1007.3
20260831003937 105 270 2.0 6.0 0.00 0.00 0.00 30 1007.3
20260831003819 105 269 2.0 5.0 0.00 0.00 0.00 30 1007.3
20260831003721 105 270 1.0 4.0 0.00 0.00 0.00 30 1007.3
20260831003622 105 270 1.0 4.0 0.00 0.00 0.00 29 1007.2
20260831003536 105 270 1.0 5.0 0.00 0.00 0.00 29 1007.2
20260831003419 106 270 1.0 5.0 0.00 0.00 0.00 29 1007.1
20260831003321 106 272 1.0 5.0 0.00 0.00 0.00 29 1007.2
20260831003223 106 271 0.0 5.0 0.00 0.00 0.00 29 1007.2
20260831003134 106 271 0.0 7.0 0.00 0.00 0.00 29 1007.2
20260831003020 106 271 0.0 9.0 0.00 0.00 0.00 29 1007.2
20260831002922 106 272 1.0 9.0 0.00 0.00 0.00 29 1007.3
20260831002831 106 271 1.0 9.0 0.00 0.00 0.00 29 1007.3
20260831002752 105 271 2.0 9.0 0.00 0.00 0.00 29 1007.3
20260831002639 105 271 2.0 9.0 0.00 0.00 0.00 29 1007.3
20260831002541 105 271 1.0 9.0 0.00 0.00 0.00 29 1007.3
20260831002429 105 273 2.0 9.0 0.00 0.00 0.00 29 1007.3
20260831002330 106 273 4.0 9.0 0.00 0.00 0.00 29 1007.3
20260831002216 106 274 2.0 8.0 0.00 0.00 0.00 29 1007.3
20260831002145 106 277 2.0 8.0 0.00 0.00 0.00 29 1007.3
20260831002054 106 276 2.0 8.0 0.00 0.00 0.00 29 1007.3
20260831001915 106 227 2.0 6.0 0.00 0.00 0.00 29 1007.3
20260831001839 106 269 3.0 6.0 0.00 0.00 0.00 29 1007.3
20260831001725 106 276 3.0 6.0 0.00 0.00 0.00 29 1007.4
20260831001626 106 276 3.0 6.0 0.00 0.00 0.00 29 1007.4
20260831001520 106 277 2.0 5.0 0.00 0.00 0.00 29 1007.3
20260831001422 106 277 2.0 5.0 0.00 0.00 0.00 28 1007.3
20260831001351 106 277 2.0 5.0 0.00 0.00 0.00 28 1007.3
20260831001242 106 277 2.0 5.0 0.00 0.00 0.00 29 1007.3
20260831001128 106 277 2.0 5.0 0.00 0.00 0.00 28 1007.3
20260831001030 106 278 2.0 8.0 0.00 0.00 0.00 28 1007.3
20260831000935 106 278 1.0 10.0 0.00 0.00 0.00 28 1007.3
20260831000821 107 278 2.0 10.0 0.00 0.00 0.00 28 1007.3
20260831000751 107 277 2.0 10.0 0.00 0.00 0.00 29 1007.4
20260831000631 107 276 1.0 10.0 0.00 0.00 0.00 29 1007.5
20260831000541 107 276 1.0 10.0 0.00 0.00 0.00 29 1007.5
20260831000442 107 276 2.0 10.0 0.00 0.00 0.00 29 1007.5
20260831000325 107 274 4.0 10.0 0.00 0.00 0.00 28 1007.5
20260831000233 107 271 3.0 10.0 0.00 0.00 0.00 28 1007.5
20260831000119 107 250 2.0 9.0 0.00 0.00 0.00 28 1007.5
20260831000034 107 261 2.0 9.0 0.00 0.00 0.00 28 1007.5
20260830235951 107 260 3.0 9.0 0.00 0.00 0.00 28 1007.5
20260830235833 107 260 2.0 9.0 0.00 0.00 0.00 28 1007.5
20260830235716 107 276 2.0 8.0 0.00 0.00 0.00 28 1007.6
20260830235625 107 295 2.0 8.0 0.00 0.00 0.00 28 1007.5
20260830235526 107 259 1.0 7.0 0.00 0.00 0.00 28 1007.5
20260830235440 107 238 0.0 7.0 0.00 0.00 0.00 28 1007.5
20260830235322 107 239 0.0 8.0 0.00 0.00 0.00 28 1007.6
20260830235225 107 238 1.0 8.0 0.00 0.00 0.00 29 1007.6
20260830235126 106 238 2.0 8.0 0.00 0.00 0.00 29 1007.6
20260830235037 106 238 3.0 8.0 0.00 0.00 0.00 28 1007.6
20260830234924 107 238 3.0 8.0 0.00 0.00 0.00 28 1007.6
20260830234825 107 238 3.0 8.0 0.00 0.00 0.00 28 1007.7
20260830234735 107 247 3.0 8.0 0.00 0.00 0.00 28 1007.7
20260830234637 108 250 3.0 8.0 0.00 0.00 0.00 28 1007.6
20260830234518 107 258 2.0 7.0 0.00 0.00 0.00 28 1007.7
20260830234446 107 258 2.0 7.0 0.00 0.00 0.00 28 1007.6
20260830234326 107 256 2.0 7.0 0.00 0.00 0.00 28 1007.7
20260830234240 107 256 2.0 7.0 0.00 0.00 0.00 28 1007.6
20260830234141 107 255 2.0 7.0 0.00 0.00 0.00 28 1007.7
20260830234027 107 253 1.0 7.0 0.00 0.00 0.00 29 1007.7
20260830233930 107 233 2.0 7.0 0.00 0.00 0.00 29 1007.6
20260830233830 107 233 3.0 7.0 0.00 0.00 0.00 28 1007.7
20260830233741 107 231 3.0 7.0 0.00 0.00 0.00 28 1007.7
20260830233622 107 231 1.0 5.0 0.00 0.00 0.00 28 1007.6
20260830233528 107 233 1.0 5.0 0.00 0.00 0.00 28 1007.7
20260830233440 107 233 1.0 5.0 0.00 0.00 0.00 29 1007.7
20260830233339 107 233 1.0 7.0 0.00 0.00 0.00 29 1007.6
20260830233220 106 228 0.0 8.0 0.00 0.00 0.00 30 1007.7
20260830233149 106 228 0.0 8.0 0.00 0.00 0.00 29 1007.7
20260830233030 106 228 0.0 8.0 0.00 0.00 0.00 29 1007.7
20260830232917 106 228 1.0 8.0 0.00 0.00 0.00 28 1007.8
20260830232825 106 228 2.0 8.0 0.00 0.00 0.00 28 1007.7
20260830232726 106 228 3.0 8.0 0.00 0.00 0.00 28 1007.8
20260830232636 106 233 3.0 8.0 0.00 0.00 0.00 28 1007.8
20260830232519 106 237 4.0 8.0 0.00 0.00 0.00 28 1007.7
20260830232421 106 233 3.0 8.0 0.00 0.00 0.00 28 1007.7
20260830232323 106 240 3.0 8.0 0.00 0.00 0.00 28 1007.8
20260830232257 106 239 3.0 8.0 0.00 0.00 0.00 28 1007.8
20260830232117 107 237 3.0 8.0 0.00 0.00 0.00 28 1007.8
20260830232019 107 231 3.0 8.0 0.00 0.00 0.00 28 1007.8
20260830231928 107 231 3.0 8.0 0.00 0.00 0.00 28 1007.9
20260830231830 106 228 2.0 8.0 0.00 0.00 0.00 28 1007.8
20260830231732 106 231 1.0 8.0 0.00 0.00 0.00 28 1007.8
20260830231644 107 236 0.0 8.0 0.00 0.00 0.00 27 1007.9
20260830231552 107 236 0.0 8.0 0.00 0.00 0.00 28 1007.9
20260830231452 107 236 0.0 8.0 0.00 0.00 0.00 28 1007.9
20260830231233 107 232 3.0 10.0 0.00 0.00 0.00 27 1007.9
20260830231200 107 233 2.0 10.0 0.00 0.00 0.00 27 1008.0
20260830231021 107 230 1.0 10.0 0.00 0.00 0.00 27 1008.0
20260830230950 107 229 2.0 10.0 0.00 0.00 0.00 27 1008.0
20260830230900 107 228 2.0 10.0 0.00 0.00 0.00 27 1008.0
20260830230724 107 224 3.0 10.0 0.00 0.00 0.00 27 1007.9
20260830230626 107 216 4.0 10.0 0.00 0.00 0.00 27 1008.0
20260830230528 107 266 4.0 10.0 0.00 0.00 0.00 27 1007.8
20260830230438 108 248 2.0 8.0 0.00 0.00 0.00 27 1007.9
20260830230319 107 264 2.0 7.0 0.00 0.00 0.00 28 1008.0
20260830230222 107 264 2.0 10.0 0.00 0.00 0.00 28 1008.0
20260830230130 107 264 1.0 10.0 0.00 0.00 0.00 28 1008.0
20260830230027 107 264 1.0 10.0 0.00 0.00 0.00 28 1008.0
20260830225925 107 257 1.0 10.0 0.00 0.00 0.00 29 1008.0
20260830225828 107 257 1.0 10.0 0.00 0.00 0.00 28 1008.0
20260830225731 107 257 1.0 10.0 0.00 0.00 0.00 28 1008.0
20260830225640 107 257 2.0 10.0 0.00 0.00 0.00 28 1008.0
20260830225523 107 255 3.0 10.0 0.00 0.00 0.00 28 1008.2
20260830225428 107 246 2.0 10.0 0.00 0.00 0.00 29 1008.2
20260830225341 107 258 1.0 4.0 0.00 0.00 0.00 29 1008.2
20260830225242 107 258 1.0 3.0 0.00 0.00 0.00 29 1008.1
20260830225123 107 258 1.0 5.0 0.00 0.00 0.00 29 1008.1
20260830225034 107 258 1.0 8.0 0.00 0.00 0.00 28 1008.1
20260830224934 107 258 1.0 10.0 0.00 0.00 0.00 28 1008.2
20260830224819 107 258 1.0 10.0 0.00 0.00 0.00 29 1008.2
20260830224721 107 258 1.0 10.0 0.00 0.00 0.00 29 1008.2
20260830224630 107 258 1.0 10.0 0.00 0.00 0.00 29 1008.2
20260830224533 107 258 1.0 10.0 0.00 0.00 0.00 29 1008.2
20260830224415 106 253 2.0 10.0 0.00 0.00 0.00 29 1008.3
20260830224318 107 254 3.0 11.0 0.00 0.00 0.00 29 1008.3
20260830224231 107 258 3.0 11.0 0.00 0.00 0.00 29 1008.3
20260830224133 106 267 2.0 11.0 0.00 0.00 0.00 30 1008.3
20260830224042 106 254 2.0 11.0 0.00 0.00 0.00 29 1008.4
20260830223923 106 254 2.0 11.0 0.00 0.00 0.00 29 1008.4
20260830223824 106 254 3.0 11.0 0.00 0.00 0.00 29 1008.4
20260830223735 106 255 3.0 11.0 0.00 0.00 0.00 29 1008.4
20260830223634 106 234 3.0 11.0 0.00 0.00 0.00 29 1008.4
20260830223518 106 251 3.0 11.0 0.00 0.00 0.00 29 1008.4
20260830223428 107 223 3.0 8.0 0.00 0.00 0.00 29 1008.4
20260830223330 107 219 4.0 8.0 0.00 0.00 0.00 29 1008.3
20260830223233 107 221 3.0 8.0 0.00 0.00 0.00 29 1008.3
20260830223141 107 220 3.0 8.0 0.00 0.00 0.00 28 1008.4
20260830223043 107 212 3.0 9.0 0.00 0.00 0.00 28 1008.4
20260830222951 107 222 2.0 14.0 0.00 0.00 0.00 28 1008.4
20260830222842 108 236 2.0 14.0 0.00 0.00 0.00 27 1008.4
20260830222724 108 238 2.0 14.0 0.00 0.00 0.00 27 1008.5
20260830222643 108 319 2.0 14.0 0.00 0.00 0.00 28 1008.5
20260830222533 108 324 1.0 14.0 0.00 0.00 0.00 28 1008.5
20260830222434 108 325 1.0 14.0 0.00 0.00 0.00 28 1008.5
20260830222317 108 326 2.0 14.0 0.00 0.00 0.00 29 1008.6
20260830222223 108 326 3.0 14.0 0.00 0.00 0.00 29 1008.6
20260830222154 108 326 3.0 14.0 0.00 0.00 0.00 28 1008.6
20260830222101 108 246 1.0 5.0 0.00 0.00 0.00 28 1008.6
20260830221922 108 246 1.0 7.0 0.00 0.00 0.00 28 1008.6
20260830221823 108 246 2.0 8.0 0.00 0.00 0.00 29 1008.6
20260830221734 108 246 1.0 8.0 0.00 0.00 0.00 28 1008.6
20260830221635 107 246 1.0 8.0 0.00 0.00 0.00 28 1008.7
20260830221521 107 246 1.0 8.0 0.00 0.00 0.00 28 1008.7
20260830221423 108 246 1.0 8.0 0.00 0.00 0.00 28 1008.7
20260830221331 108 246 2.0 8.0 0.00 0.00 0.00 28 1008.7
20260830221233 108 246 2.0 8.0 0.00 0.00 0.00 28 1008.7
20260830221115 108 246 3.0 8.0 0.00 0.00 0.00 28 1008.8
20260830220820 107 244 1.0 7.0 0.00 0.00 0.00 29 1008.9
20260830220734 107 244 1.0 7.0 0.00 0.00 0.00 29 1008.9
20260830220638 107 244 2.0 7.0 0.00 0.00 0.00 30 1008.9